Wetterdaten: Montag, 18.08.2014
Datum Zeit Temp. Aussen +5cm Feuchte Auss Luftdruck Regen Sonnenschein Regendauer UV Solar Windben
18.08.2014 00:00 13,4 C 12,2 C 97 % 1006,4 hPa 0,0 l/m 0 min 2 min 0,0 UV-I 0 W/m 38,9 km/h (6 Bft)
18.08.2014 00:02 13,4 C 12,2 C 97 % 1006,4 hPa 0,0 l/m 0 min 2 min 0,0 UV-I 0 W/m 35,4 km/h (5 Bft)
18.08.2014 00:05 13,4 C 12,2 C 97 % 1006,4 hPa 0,0 l/m 0 min 2 min 0,0 UV-I 0 W/m 42,4 km/h (6 Bft)
18.08.2014 00:06 13,4 C 12,2 C 97 % 1006,4 hPa 0,0 l/m 0 min 1 min 0,0 UV-I 0 W/m 31,7 km/h (5 Bft)
18.08.2014 00:08 13,3 C 12,2 C 97 % 1006,4 hPa 0,0 l/m 0 min 0 min 0,0 UV-I 0 W/m 28,2 km/h (4 Bft)
18.08.2014 00:10 13,3 C 11,7 C 97 % 1006,4 hPa 0,0 l/m 0 min 0 min 0,0 UV-I 0 W/m 38,9 km/h (6 Bft)
18.08.2014 00:12 13,3 C 11,7 C 97 % 1006,4 hPa 0,0 l/m 0 min 0 min 0,0 UV-I 0 W/m 31,7 km/h (5 Bft)
18.08.2014 00:14 13,2 C 11,7 C 97 % 1006,4 hPa 0,0 l/m 0 min 0 min 0,0 UV-I 0 W/m 28,2 km/h (4 Bft)
18.08.2014 00:16 13,2 C 11,7 C 97 % 1006,3 hPa 0,0 l/m 0 min 2 min 0,0 UV-I 0 W/m 35,4 km/h (5 Bft)
18.08.2014 00:18 13,2 C 11,7 C 97 % 1006,3 hPa 0,0 l/m 0 min 0 min 0,0 UV-I 0 W/m 28,2 km/h (4 Bft)
18.08.2014 00:20 13,2 C 11,7 C 97 % 1006,3 hPa 0,0 l/m 0 min 0 min 0,0 UV-I 0 W/m 24,7 km/h (4 Bft)
18.08.2014 00:22 13,2 C 11,7 C 97 % 1006,3 hPa 0,0 l/m 0 min 0 min 0,0 UV-I 0 W/m 28,2 km/h (4 Bft)
18.08.2014 00:24 13,2 C 11,7 C 97 % 1006,3 hPa 0,0 l/m 0 min 0 min 0,0 UV-I 0 W/m 24,7 km/h (4 Bft)
18.08.2014 00:26 13,2 C 11,7 C 97 % 1006,3 hPa 0,0 l/m 0 min 0 min 0,0 UV-I 0 W/m 31,7 km/h (5 Bft)
18.08.2014 00:28 13,2 C 11,7 C 97 % 1006,3 hPa 0,0 l/m 0 min 0 min 0,0 UV-I 0 W/m 28,2 km/h (4 Bft)
18.08.2014 00:30 13,2 C 11,7 C 97 % 1006,3 hPa 0,0 l/m 0 min 0 min 0,0 UV-I 0 W/m 28,2 km/h (4 Bft)
18.08.2014 00:32 13,2 C 11,7 C 97 % 1006,3 hPa 0,0 l/m 0 min 2 min 0,0 UV-I 0 W/m 35,4 km/h (5 Bft)
18.08.2014 00:34 13,2 C 12,2 C 97 % 1006,3 hPa 0,0 l/m 0 min 2 min 0,0 UV-I 0 W/m 35,4 km/h (5 Bft)
18.08.2014 00:36 13,2 C 12,2 C 97 % 1006,3 hPa 0,0 l/m 0 min 2 min 0,0 UV-I 0 W/m 35,4 km/h (5 Bft)
18.08.2014 00:38 13,3 C 12,2 C 97 % 1006,3 hPa 0,0 l/m 0 min 0 min 0,0 UV-I 0 W/m 28,2 km/h (4 Bft)
18.08.2014 00:40 13,3 C 12,2 C 97 % 1006,3 hPa 0,0 l/m 0 min 0 min 0,0 UV-I 0 W/m 31,7 km/h (5 Bft)
18.08.2014 00:42 13,3 C 12,2 C 97 % 1006,3 hPa 0,0 l/m 0 min 2 min 0,0 UV-I 0 W/m 35,4 km/h (5 Bft)
18.08.2014 00:44 13,3 C 12,2 C 97 % 1006,3 hPa 0,0 l/m 0 min 0 min 0,0 UV-I 0 W/m 28,2 km/h (4 Bft)
18.08.2014 00:46 13,3 C 12,2 C 97 % 1006,3 hPa 0,0 l/m 0 min 0 min 0,0 UV-I 0 W/m 21,3 km/h (4 Bft)
18.08.2014 00:48 13,3 C 12,2 C 97 % 1006,3 hPa 0,0 l/m 0 min 0 min 0,0 UV-I 0 W/m 28,2 km/h (4 Bft)
18.08.2014 00:50 13,3 C 12,2 C 97 % 1006,3 hPa 0,0 l/m 0 min 0 min 0,0 UV-I 0 W/m 38,9 km/h (6 Bft)
18.08.2014 00:52 13,3 C 12,2 C 97 % 1006,3 hPa 0,0 l/m 0 min 0 min 0,0 UV-I 0 W/m 24,7 km/h (4 Bft)
18.08.2014 00:54 13,3 C 12,2 C 97 % 1006,3 hPa 0,0 l/m 0 min 0 min 0,0 UV-I 0 W/m 28,2 km/h (4 Bft)
18.08.2014 00:56 13,3 C 12,2 C 97 % 1006,2 hPa 0,0 l/m 0 min 2 min 0,0 UV-I 0 W/m 42,4 km/h (6 Bft)
18.08.2014 00:58 13,3 C 12,2 C 97 % 1006,2 hPa 0,0 l/m 0 min 2 min 0,0 UV-I 0 W/m 42,4 km/h (6 Bft)
18.08.2014 01:00 13,3 C 12,2 C 97 % 1006,3 hPa 0,0 l/m 0 min 0 min 0,0 UV-I 0 W/m 31,7 km/h (5 Bft)
18.08.2014 01:02 13,4 C 12,2 C 97 % 1006,2 hPa 0,0 l/m 0 min 2 min 0,0 UV-I 0 W/m 28,2 km/h (4 Bft)
18.08.2014 01:04 13,4 C 12,2 C 97 % 1006,2 hPa 0,0 l/m 0 min 0 min 0,0 UV-I 0 W/m 24,7 km/h (4 Bft)
18.08.2014 01:06 13,4 C 12,2 C 97 % 1006,2 hPa 0,0 l/m 0 min 0 min 0,0 UV-I 0 W/m 28,2 km/h (4 Bft)
18.08.2014 01:08 13,4 C 12,2 C 97 % 1006,1 hPa 0,0 l/m 0 min 0 min 0,0 UV-I 0 W/m 31,7 km/h (5 Bft)
18.08.2014 01:10 13,4 C 12,2 C 97 % 1006,0 hPa 0,0 l/m 0 min 0 min 0,0 UV-I 0 W/m 28,2 km/h (4 Bft)
18.08.2014 01:12 13,4 C 12,2 C 97 % 1006,1 hPa 0,0 l/m 0 min 0 min 0,0 UV-I 0 W/m 17,7 km/h (3 Bft)
18.08.2014 01:14 13,4 C 12,2 C 97 % 1006,2 hPa 0,0 l/m 0 min 0 min 0,0 UV-I 0 W/m 17,7 km/h (3 Bft)
18.08.2014 01:16 13,4 C 12,2 C 97 % 1006,1 hPa 0,0 l/m 0 min 0 min 0,0 UV-I 0 W/m 21,3 km/h (4 Bft)
18.08.2014 01:18 13,3 C 12,2 C 97 % 1006,1 hPa 0,0 l/m 0 min 0 min 0,0 UV-I 0 W/m 28,2 km/h (4 Bft)
18.08.2014 01:20 13,3 C 12,2 C 97 % 1006,1 hPa 0,0 l/m 0 min 0 min 0,0 UV-I 0 W/m 14,2 km/h (3 Bft)
18.08.2014 01:22 13,3 C 12,2 C 97 % 1006,1 hPa 0,0 l/m 0 min 0 min 0,0 UV-I 0 W/m 21,3 km/h (4 Bft)
18.08.2014 01:24 13,3 C 12,2 C 97 % 1006,1 hPa 0,0 l/m 0 min 0 min 0,0 UV-I 0 W/m 28,2 km/h (4 Bft)
18.08.2014 01:26 13,3 C 12,2 C 97 % 1006,0 hPa 0,0 l/m 0 min 0 min 0,0 UV-I 0 W/m 31,7 km/h (5 Bft)
18.08.2014 01:28 13,3 C 12,2 C 97 % 1006,0 hPa 0,0 l/m 0 min 0 min 0,0 UV-I 0 W/m 24,7 km/h (4 Bft)
18.08.2014 01:30 13,3 C 12,2 C 97 % 1006,0 hPa 0,0 l/m 0 min 0 min 0,0 UV-I 0 W/m 21,3 km/h (4 Bft)
18.08.2014 01:32 13,3 C 12,2 C 97 % 1006,0 hPa 0,0 l/m 0 min 0 min 0,0 UV-I 0 W/m 28,2 km/h (4 Bft)
18.08.2014 01:34 13,3 C 12,2 C 97 % 1006,0 hPa 0,0 l/m 0 min 0 min 0,0 UV-I 0 W/m 21,3 km/h (4 Bft)
18.08.2014 01:36 13,3 C 12,2 C 97 % 1006,0 hPa 0,0 l/m 0 min 0 min 0,0 UV-I 0 W/m 24,7 km/h (4 Bft)
18.08.2014 01:38 13,3 C 12,2 C 97 % 1006,0 hPa 0,0 l/m 0 min 0 min 0,0 UV-I 0 W/m 42,4 km/h (6 Bft)
18.08.2014 01:40 13,4 C 12,2 C 97 % 1005,9 hPa 0,0 l/m 0 min 0 min 0,0 UV-I 0 W/m 28,2 km/h (4 Bft)
18.08.2014 01:42 13,4 C 12,2 C 97 % 1005,9 hPa 0,0 l/m 0 min 0 min 0,0 UV-I 0 W/m 35,4 km/h (5 Bft)
18.08.2014 01:44 13,4 C 12,2 C 97 % 1005,9 hPa 0,0 l/m 0 min 0 min 0,0 UV-I 0 W/m 28,2 km/h (4 Bft)
18.08.2014 01:46 13,4 C 12,2 C 97 % 1005,9 hPa 0,0 l/m 0 min 0 min 0,0 UV-I 0 W/m 28,2 km/h (4 Bft)
18.08.2014 01:48 13,4 C 12,2 C 97 % 1005,9 hPa 0,0 l/m 0 min 0 min 0,0 UV-I 0 W/m 31,7 km/h (5 Bft)
18.08.2014 01:50 13,4 C 12,2 C 97 % 1005,9 hPa 0,0 l/m 0 min 0 min 0,0 UV-I 0 W/m 31,7 km/h (5 Bft)
18.08.2014 01:52 13,4 C 12,2 C 97 % 1005,9 hPa 0,0 l/m 0 min 0 min 0,0 UV-I 0 W/m 28,2 km/h (4 Bft)
18.08.2014 01:54 13,4 C 12,2 C 97 % 1005,8 hPa 0,0 l/m 0 min 0 min 0,0 UV-I 0 W/m 28,2 km/h (4 Bft)
18.08.2014 01:56 13,4 C 12,2 C 97 % 1005,9 hPa 0,0 l/m 0 min 0 min 0,0 UV-I 0 W/m 17,7 km/h (3 Bft)
18.08.2014 01:58 13,4 C 12,2 C 97 % 1005,9 hPa 0,0 l/m 0 min 0 min 0,0 UV-I 0 W/m 17,7 km/h (3 Bft)
18.08.2014 02:00 13,4 C 12,2 C 97 % 1005,9 hPa 0,0 l/m 0 min 0 min 0,0 UV-I 0 W/m 24,7 km/h (4 Bft)
18.08.2014 02:02 13,4 C 12,2 C 97 % 1005,8 hPa 0,0 l/m 0 min 0 min 0,0 UV-I 0 W/m 28,2 km/h (4 Bft)
18.08.2014 02:04 13,4 C 12,2 C 97 % 1005,8 hPa 0,0 l/m 0 min 0 min 0,0 UV-I 0 W/m 17,7 km/h (3 Bft)
18.08.2014 02:06 13,3 C 12,2 C 97 % 1005,7 hPa 0,0 l/m 0 min 0 min 0,0 UV-I 0 W/m 21,3 km/h (4 Bft)
18.08.2014 02:08 13,3 C 12,2 C 97 % 1005,8 hPa 0,0 l/m 0 min 0 min 0,0 UV-I 0 W/m 24,7 km/h (4 Bft)
18.08.2014 02:10 13,3 C 12,2 C 97 % 1005,7 hPa 0,0 l/m 0 min 0 min 0,0 UV-I 0 W/m 14,2 km/h (3 Bft)
18.08.2014 02:12 13,3 C 12,2 C 97 % 1005,7 hPa 0,0 l/m 0 min 0 min 0,0 UV-I 0 W/m 17,7 km/h (3 Bft)
18.08.2014 02:14 13,3 C 12,2 C 97 % 1005,8 hPa 0,0 l/m 0 min 0 min 0,0 UV-I 0 W/m 24,7 km/h (4 Bft)
18.08.2014 02:16 13,3 C 12,2 C 97 % 1005,7 hPa 0,0 l/m 0 min 0 min 0,0 UV-I 0 W/m 17,7 km/h (3 Bft)
18.08.2014 02:18 13,3 C 12,2 C 97 % 1005,7 hPa 0,0 l/m 0 min 0 min 0,0 UV-I 0 W/m 24,7 km/h (4 Bft)
18.08.2014 02:20 13,3 C 12,2 C 97 % 1005,8 hPa 0,0 l/m 0 min 0 min 0,0 UV-I 0 W/m 21,3 km/h (4 Bft)
18.08.2014 02:22 13,3 C 12,2 C 97 % 1005,7 hPa 0,0 l/m 0 min 0 min 0,0 UV-I 0 W/m 24,7 km/h (4 Bft)
18.08.2014 02:24 13,3 C 12,2 C 97 % 1005,7 hPa 0,0 l/m 0 min 0 min 0,0 UV-I 0 W/m 24,7 km/h (4 Bft)
18.08.2014 02:26 13,3 C 12,2 C 97 % 1005,7 hPa 0,0 l/m 0 min 0 min 0,0 UV-I 0 W/m 21,3 km/h (4 Bft)
18.08.2014 02:28 13,3 C 12,2 C 97 % 1005,6 hPa 0,0 l/m 0 min 0 min 0,0 UV-I 0 W/m 21,3 km/h (4 Bft)
18.08.2014 02:30 13,3 C 12,2 C 97 % 1005,7 hPa 0,0 l/m 0 min 0 min 0,0 UV-I 0 W/m 17,7 km/h (3 Bft)
18.08.2014 02:32 13,3 C 12,2 C 97 % 1005,6 hPa 0,0 l/m 0 min 0 min 0,0 UV-I 0 W/m 31,7 km/h (5 Bft)
18.08.2014 02:34 13,3 C 12,2 C 97 % 1005,6 hPa 0,0 l/m 0 min 0 min 0,0 UV-I 0 W/m 17,7 km/h (3 Bft)
18.08.2014 02:36 13,3 C 12,2 C 97 % 1005,6 hPa 0,0 l/m 0 min 0 min 0,0 UV-I 0 W/m 42,4 km/h (6 Bft)
18.08.2014 02:38 13,3 C 12,2 C 97 % 1005,6 hPa 0,0 l/m 0 min 0 min 0,0 UV-I 0 W/m 38,9 km/h (6 Bft)
18.08.2014 02:40 13,4 C 12,2 C 97 % 1005,6 hPa 0,0 l/m 0 min 0 min 0,0 UV-I 0 W/m 28,2 km/h (4 Bft)
18.08.2014 02:42 13,4 C 12,2 C 97 % 1005,6 hPa 0,0 l/m 0 min 0 min 0,0 UV-I 0 W/m 38,9 km/h (6 Bft)
18.08.2014 02:44 13,4 C 12,2 C 97 % 1005,6 hPa 0,0 l/m 0 min 0 min 0,0 UV-I 0 W/m 28,2 km/h (4 Bft)
18.08.2014 02:46 13,5 C 12,2 C 97 % 1005,6 hPa 0,0 l/m 0 min 0 min 0,0 UV-I 0 W/m 28,2 km/h (4 Bft)
18.08.2014 02:48 13,5 C 12,2 C 97 % 1005,6 hPa 0,0 l/m 0 min 0 min 0,0 UV-I 0 W/m 28,2 km/h (4 Bft)
18.08.2014 02:50 13,5 C 12,2 C 97 % 1005,7 hPa 0,0 l/m 0 min 0 min 0,0 UV-I 0 W/m 28,2 km/h (4 Bft)
18.08.2014 02:52 13,6 C 12,2 C 97 % 1005,6 hPa 0,0 l/m 0 min 0 min 0,0 UV-I 0 W/m 38,9 km/h (6 Bft)
18.08.2014 02:54 13,6 C 12,2 C 97 % 1005,7 hPa 0,0 l/m 0 min 0 min 0,0 UV-I 0 W/m 31,7 km/h (5 Bft)
18.08.2014 02:56 13,6 C 12,2 C 97 % 1005,6 hPa 0,0 l/m 0 min 0 min 0,0 UV-I 0 W/m 31,7 km/h (5 Bft)
18.08.2014 02:58 13,7 C 12,2 C 97 % 1005,7 hPa 0,0 l/m 0 min 0 min 0,0 UV-I 0 W/m 46,0 km/h (6 Bft)
18.08.2014 03:00 13,7 C 12,2 C 97 % 1005,6 hPa 0,0 l/m 0 min 0 min 0,0 UV-I 0 W/m 35,4 km/h (5 Bft)
18.08.2014 03:02 13,7 C 12,2 C 97 % 1005,6 hPa 0,0 l/m 0 min 0 min 0,0 UV-I 0 W/m 46,0 km/h (6 Bft)
18.08.2014 03:04 13,7 C 12,2 C 97 % 1005,6 hPa 0,0 l/m 0 min 0 min 0,0 UV-I 0 W/m 35,4 km/h (5 Bft)
18.08.2014 03:06 13,7 C 12,2 C 97 % 1005,5 hPa 0,0 l/m 0 min 0 min 0,0 UV-I 0 W/m 46,0 km/h (6 Bft)
18.08.2014 03:08 13,7 C 12,2 C 97 % 1005,5 hPa 0,0 l/m 0 min 0 min 0,0 UV-I 0 W/m 38,9 km/h (6 Bft)
18.08.2014 03:10 13,8 C 12,2 C 97 % 1005,5 hPa 0,0 l/m 0 min 0 min 0,0 UV-I 0 W/m 49,5 km/h (6 Bft)
18.08.2014 03:12 13,8 C 12,2 C 97 % 1005,5 hPa 0,0 l/m 0 min 0 min 0,0 UV-I 0 W/m 35,4 km/h (5 Bft)
18.08.2014 03:14 13,8 C 12,2 C 97 % 1005,5 hPa 0,0 l/m 0 min 0 min 0,0 UV-I 0 W/m 46,0 km/h (6 Bft)
18.08.2014 03:16 13,8 C 12,2 C 97 % 1005,5 hPa 0,0 l/m 0 min 0 min 0,0 UV-I 0 W/m 28,2 km/h (4 Bft)
18.08.2014 03:18 13,8 C 12,2 C 97 % 1005,4 hPa 0,0 l/m 0 min 0 min 0,0 UV-I 0 W/m 42,4 km/h (6 Bft)
18.08.2014 03:20 13,8 C 12,2 C 97 % 1005,5 hPa 0,0 l/m 0 min 0 min 0,0 UV-I 0 W/m 31,7 km/h (5 Bft)
18.08.2014 03:22 13,8 C 12,2 C 97 % 1005,5 hPa 0,0 l/m 0 min 0 min 0,0 UV-I 0 W/m 42,4 km/h (6 Bft)
18.08.2014 03:24 13,8 C 12,2 C 97 % 1005,5 hPa 0,0 l/m 0 min 0 min 0,0 UV-I 0 W/m 38,9 km/h (6 Bft)
18.08.2014 03:26 13,8 C 12,2 C 97 % 1005,5 hPa 0,0 l/m 0 min 0 min 0,0 UV-I 0 W/m 35,4 km/h (5 Bft)
18.08.2014 03:28 13,8 C 12,2 C 96 % 1005,5 hPa 0,0 l/m 0 min 0 min 0,0 UV-I 0 W/m 42,4 km/h (6 Bft)
18.08.2014 03:30 13,8 C 12,2 C 96 % 1005,5 hPa 0,0 l/m 0 min 0 min 0,0 UV-I 0 W/m 31,7 km/h (5 Bft)
18.08.2014 03:32 13,8 C 12,2 C 96 % 1005,5 hPa 0,0 l/m 0 min 0 min 0,0 UV-I 0 W/m 35,4 km/h (5 Bft)
18.08.2014 03:34 13,8 C 12,2 C 96 % 1005,4 hPa 0,0 l/m 0 min 0 min 0,0 UV-I 0 W/m 35,4 km/h (5 Bft)
18.08.2014 03:36 13,7 C 12,2 C 96 % 1005,5 hPa 0,0 l/m 0 min 0 min 0,0 UV-I 0 W/m 35,4 km/h (5 Bft)
18.08.2014 03:38 13,7 C 12,2 C 96 % 1005,4 hPa 0,0 l/m 0 min 0 min 0,0 UV-I 0 W/m 28,2 km/h (4 Bft)
18.08.2014 03:40 13,7 C 12,2 C 96 % 1005,5 hPa 0,0 l/m 0 min 0 min 0,0 UV-I 0 W/m 24,7 km/h (4 Bft)
18.08.2014 03:42 13,7 C 12,2 C 96 % 1005,5 hPa 0,0 l/m 0 min 0 min 0,0 UV-I 0 W/m 31,7 km/h (5 Bft)
18.08.2014 03:44 13,6 C 12,2 C 96 % 1005,5 hPa 0,0 l/m 0 min 0 min 0,0 UV-I 0 W/m 56,5 km/h (7 Bft)
18.08.2014 03:46 13,6 C 12,2 C 96 % 1005,5 hPa 0,0 l/m 0 min 0 min 0,0 UV-I 0 W/m 28,2 km/h (4 Bft)
18.08.2014 03:48 13,6 C 12,2 C 96 % 1005,5 hPa 0,0 l/m 0 min 0 min 0,0 UV-I 0 W/m 42,4 km/h (6 Bft)
18.08.2014 03:50 13,6 C 12,2 C 96 % 1005,4 hPa 0,0 l/m 0 min 0 min 0,0 UV-I 0 W/m 24,7 km/h (4 Bft)
18.08.2014 03:52 13,6 C 12,2 C 96 % 1005,4 hPa 0,0 l/m 0 min 0 min 0,0 UV-I 0 W/m 35,4 km/h (5 Bft)
18.08.2014 03:54 13,6 C 12,2 C 96 % 1005,4 hPa 0,0 l/m 0 min 0 min 0,0 UV-I 0 W/m 31,7 km/h (5 Bft)
18.08.2014 03:56 13,5 C 12,2 C 96 % 1005,5 hPa 0,0 l/m 0 min 0 min 0,0 UV-I 0 W/m 53,0 km/h (7 Bft)
18.08.2014 03:58 13,6 C 12,2 C 96 % 1005,3 hPa 0,0 l/m 0 min 0 min 0,0 UV-I 0 W/m 42,4 km/h (6 Bft)
18.08.2014 04:00 13,6 C 12,2 C 96 % 1005,4 hPa 0,0 l/m 0 min 0 min 0,0 UV-I 0 W/m 35,4 km/h (5 Bft)
18.08.2014 04:02 13,6 C 12,2 C 96 % 1005,4 hPa 0,0 l/m 0 min 0 min 0,0 UV-I 0 W/m 21,3 km/h (4 Bft)
18.08.2014 04:07 13,5 C 12,2 C 96 % 1005,3 hPa 0,0 l/m 0 min 0 min 0,0 UV-I 0 W/m 38,9 km/h (6 Bft)
18.08.2014 04:08 13,5 C 12,2 C 96 % 1005,3 hPa 0,0 l/m 0 min 0 min 0,0 UV-I 0 W/m 38,9 km/h (6 Bft)
18.08.2014 04:10 13,5 C 12,2 C 96 % 1005,3 hPa 0,0 l/m 0 min 0 min 0,0 UV-I 0 W/m 35,4 km/h (5 Bft)
18.08.2014 04:12 13,5 C 12,2 C 96 % 1005,4 hPa 0,0 l/m 0 min 0 min 0,0 UV-I 0 W/m 38,9 km/h (6 Bft)
18.08.2014 04:14 13,5 C 12,2 C 96 % 1005,3 hPa 0,0 l/m 0 min 0 min 0,0 UV-I 0 W/m 42,4 km/h (6 Bft)
18.08.2014 04:16 13,6 C 12,2 C 96 % 1005,3 hPa 0,0 l/m 0 min 0 min 0,0 UV-I 0 W/m 42,4 km/h (6 Bft)
18.08.2014 04:18 13,6 C 12,2 C 96 % 1005,3 hPa 0,0 l/m 0 min 0 min 0,0 UV-I 0 W/m 46,0 km/h (6 Bft)
18.08.2014 04:20 13,6 C 12,2 C 96 % 1005,2 hPa 0,0 l/m 0 min 0 min 0,0 UV-I 0 W/m 49,5 km/h (6 Bft)
18.08.2014 04:22 13,6 C 12,2 C 96 % 1005,2 hPa 0,0 l/m 0 min 0 min 0,0 UV-I 0 W/m 28,2 km/h (4 Bft)
18.08.2014 04:24 13,6 C 12,2 C 96 % 1005,2 hPa 0,0 l/m 0 min 0 min 0,0 UV-I 0 W/m 28,2 km/h (4 Bft)
18.08.2014 04:26 13,6 C 12,2 C 96 % 1005,4 hPa 0,0 l/m 0 min 0 min 0,0 UV-I 0 W/m 35,4 km/h (5 Bft)
18.08.2014 04:28 13,6 C 12,2 C 96 % 1005,3 hPa 0,0 l/m 0 min 0 min 0,0 UV-I 0 W/m 31,7 km/h (5 Bft)
18.08.2014 04:30 13,6 C 12,2 C 96 % 1005,3 hPa 0,0 l/m 0 min 0 min 0,0 UV-I 0 W/m 42,4 km/h (6 Bft)
18.08.2014 04:32 13,6 C 12,2 C 96 % 1005,3 hPa 0,0 l/m 0 min 0 min 0,0 UV-I 0 W/m 35,4 km/h (5 Bft)
18.08.2014 04:34 13,6 C 12,2 C 96 % 1005,3 hPa 0,0 l/m 0 min 0 min 0,0 UV-I 0 W/m 35,4 km/h (5 Bft)
18.08.2014 04:36 13,6 C 12,2 C 96 % 1005,2 hPa 0,0 l/m 0 min 0 min 0,0 UV-I 0 W/m 31,7 km/h (5 Bft)
18.08.2014 04:38 13,6 C 12,2 C 96 % 1005,3 hPa 0,0 l/m 0 min 0 min 0,0 UV-I 0 W/m 35,4 km/h (5 Bft)
18.08.2014 04:40 13,6 C 12,2 C 96 % 1005,2 hPa 0,0 l/m 0 min 0 min 0,0 UV-I 0 W/m 38,9 km/h (6 Bft)
18.08.2014 04:42 13,6 C 12,2 C 96 % 1005,2 hPa 0,0 l/m 0 min 0 min 0,0 UV-I 0 W/m 38,9 km/h (6 Bft)
18.08.2014 04:44 13,6 C 12,2 C 96 % 1005,2 hPa 0,0 l/m 0 min 0 min 0,0 UV-I 0 W/m 49,5 km/h (6 Bft)
18.08.2014 04:46 13,6 C 12,2 C 96 % 1005,2 hPa 0,0 l/m 0 min 0 min 0,0 UV-I 0 W/m 46,0 km/h (6 Bft)
18.08.2014 04:48 13,6 C 12,2 C 96 % 1005,2 hPa 0,0 l/m 0 min 0 min 0,0 UV-I 0 W/m 42,4 km/h (6 Bft)
18.08.2014 04:50 13,6 C 12,2 C 96 % 1005,3 hPa 0,0 l/m 0 min 0 min 0,0 UV-I 0 W/m 35,4 km/h (5 Bft)
18.08.2014 04:52 13,6 C 12,2 C 96 % 1005,3 hPa 0,0 l/m 0 min 0 min 0,0 UV-I 0 W/m 38,9 km/h (6 Bft)
18.08.2014 04:54 13,6 C 12,2 C 96 % 1005,3 hPa 0,0 l/m 0 min 0 min 0,0 UV-I 0 W/m 46,0 km/h (6 Bft)
18.08.2014 04:56 13,6 C 12,2 C 96 % 1005,3 hPa 0,0 l/m 0 min 0 min 0,0 UV-I 0 W/m 35,4 km/h (5 Bft)
18.08.2014 04:58 13,6 C 12,2 C 96 % 1005,3 hPa 0,0 l/m 0 min 0 min 0,0 UV-I 0 W/m 28,2 km/h (4 Bft)
18.08.2014 05:00 13,6 C 12,2 C 96 % 1005,4 hPa 0,0 l/m 0 min 0 min 0,0 UV-I 0 W/m 46,0 km/h (6 Bft)
18.08.2014 05:02 13,6 C 12,2 C 96 % 1005,3 hPa 0,0 l/m 0 min 0 min 0,0 UV-I 0 W/m 46,0 km/h (6 Bft)
18.08.2014 05:04 13,6 C 12,2 C 96 % 1005,3 hPa 0,0 l/m 0 min 0 min 0,0 UV-I 0 W/m 42,4 km/h (6 Bft)
18.08.2014 05:06 13,5 C 12,2 C 96 % 1005,4 hPa 0,0 l/m 0 min 0 min 0,0 UV-I 0 W/m 35,4 km/h (5 Bft)
18.08.2014 05:08 13,5 C 12,2 C 96 % 1005,2 hPa 0,0 l/m 0 min 0 min 0,0 UV-I 0 W/m 42,4 km/h (6 Bft)
18.08.2014 05:10 13,5 C 12,2 C 96 % 1005,2 hPa 0,0 l/m 0 min 0 min 0,0 UV-I 0 W/m 46,0 km/h (6 Bft)
18.08.2014 05:12 13,5 C 12,2 C 96 % 1005,2 hPa 0,0 l/m 0 min 0 min 0,0 UV-I 0 W/m 53,0 km/h (7 Bft)
18.08.2014 05:14 13,5 C 12,2 C 96 % 1005,2 hPa 0,0 l/m 0 min 0 min 0,0 UV-I 0 W/m 28,2 km/h (4 Bft)
18.08.2014 05:16 13,5 C 12,2 C 96 % 1005,1 hPa 0,0 l/m 0 min 0 min 0,0 UV-I 0 W/m 38,9 km/h (6 Bft)
18.08.2014 05:18 13,4 C 12,2 C 96 % 1005,2 hPa 0,0 l/m 0 min 0 min 0,0 UV-I 0 W/m 31,7 km/h (5 Bft)
18.08.2014 05:20 13,4 C 12,2 C 96 % 1005,1 hPa 0,0 l/m 0 min 0 min 0,0 UV-I 0 W/m 35,4 km/h (5 Bft)
18.08.2014 05:22 13,4 C 12,2 C 96 % 1005,2 hPa 0,0 l/m 0 min 0 min 0,0 UV-I 0 W/m 49,5 km/h (6 Bft)
18.08.2014 05:24 13,4 C 12,2 C 96 % 1005,1 hPa 0,0 l/m 0 min 0 min 0,0 UV-I 0 W/m 49,5 km/h (6 Bft)
18.08.2014 05:26 13,4 C 12,2 C 96 % 1005,1 hPa 0,0 l/m 0 min 0 min 0,0 UV-I 0 W/m 42,4 km/h (6 Bft)
18.08.2014 05:28 13,4 C 12,2 C 96 % 1005,1 hPa 0,0 l/m 0 min 0 min 0,0 UV-I 0 W/m 42,4 km/h (6 Bft)
18.08.2014 05:30 13,5 C 12,2 C 96 % 1005,1 hPa 0,0 l/m 0 min 0 min 0,0 UV-I 0 W/m 35,4 km/h (5 Bft)
18.08.2014 05:32 13,4 C 12,2 C 96 % 1005,1 hPa 0,0 l/m 0 min 0 min 0,0 UV-I 0 W/m 35,4 km/h (5 Bft)
18.08.2014 05:34 13,4 C 12,2 C 96 % 1005,1 hPa 0,0 l/m 0 min 0 min 0,0 UV-I 0 W/m 42,4 km/h (6 Bft)
18.08.2014 05:36 13,4 C 12,2 C 96 % 1005,1 hPa 0,0 l/m 0 min 0 min 0,0 UV-I 0 W/m 38,9 km/h (6 Bft)
18.08.2014 05:38 13,4 C 12,2 C 96 % 1005,1 hPa 0,0 l/m 0 min 0 min 0,0 UV-I 0 W/m 42,4 km/h (6 Bft)
18.08.2014 05:40 13,5 C 12,2 C 96 % 1005,1 hPa 0,0 l/m 0 min 0 min 0,0 UV-I 0 W/m 38,9 km/h (6 Bft)
18.08.2014 05:42 13,5 C 12,2 C 96 % 1005,1 hPa 0,0 l/m 0 min 0 min 0,0 UV-I 0 W/m 38,9 km/h (6 Bft)
18.08.2014 05:44 13,5 C 12,2 C 96 % 1005,2 hPa 0,0 l/m 0 min 0 min 0,0 UV-I 0 W/m 31,7 km/h (5 Bft)
18.08.2014 05:46 13,5 C 12,2 C 96 % 1005,1 hPa 0,0 l/m 0 min 0 min 0,0 UV-I 0 W/m 28,2 km/h (4 Bft)
18.08.2014 05:48 13,5 C 12,2 C 96 % 1005,1 hPa 0,0 l/m 0 min 0 min 0,0 UV-I 0 W/m 49,5 km/h (6 Bft)
18.08.2014 05:50 13,5 C 12,2 C 96 % 1005,0 hPa 0,0 l/m 0 min 0 min 0,0 UV-I 0 W/m 38,9 km/h (6 Bft)
18.08.2014 05:52 13,5 C 12,2 C 96 % 1005,0 hPa 0,0 l/m 0 min 0 min 0,0 UV-I 0 W/m 46,0 km/h (6 Bft)
18.08.2014 05:54 13,5 C 12,2 C 96 % 1005,0 hPa 0,0 l/m 0 min 0 min 0,0 UV-I 0 W/m 31,7 km/h (5 Bft)
18.08.2014 05:56 13,5 C 12,2 C 96 % 1005,1 hPa 0,0 l/m 0 min 0 min 0,0 UV-I 0 W/m 49,5 km/h (6 Bft)
18.08.2014 05:58 13,4 C 12,2 C 96 % 1005,0 hPa 0,0 l/m 0 min 0 min 0,0 UV-I 0 W/m 28,2 km/h (4 Bft)
18.08.2014 06:00 13,4 C 12,2 C 96 % 1005,0 hPa 0,0 l/m 0 min 0 min 0,0 UV-I 0 W/m 38,9 km/h (6 Bft)
18.08.2014 06:02 13,4 C 12,2 C 96 % 1005,0 hPa 0,0 l/m 0 min 0 min 0,0 UV-I 0 W/m 35,4 km/h (5 Bft)
18.08.2014 06:06 13,4 C 12,2 C 95 % 1005,0 hPa 0,0 l/m 0 min 0 min 0,0 UV-I 0 W/m 38,9 km/h (6 Bft)
18.08.2014 06:08 13,3 C 12,2 C 95 % 1005,0 hPa 0,0 l/m 0 min 0 min 0,0 UV-I 0 W/m 42,4 km/h (6 Bft)
18.08.2014 06:10 13,3 C 12,2 C 95 % 1005,0 hPa 0,0 l/m 0 min 0 min 0,0 UV-I 0 W/m 28,2 km/h (4 Bft)
18.08.2014 06:12 13,3 C 12,2 C 95 % 1005,0 hPa 0,0 l/m 0 min 0 min 0,0 UV-I 0 W/m 42,4 km/h (6 Bft)
18.08.2014 06:14 13,3 C 12,2 C 95 % 1005,0 hPa 0,0 l/m 0 min 0 min 0,0 UV-I 0 W/m 31,7 km/h (5 Bft)
18.08.2014 06:16 13,3 C 12,2 C 95 % 1005,1 hPa 0,0 l/m 0 min 0 min 0,0 UV-I 0 W/m 42,4 km/h (6 Bft)
18.08.2014 06:18 13,3 C 12,2 C 95 % 1005,1 hPa 0,0 l/m 0 min 0 min 0,0 UV-I 0 W/m 31,7 km/h (5 Bft)
18.08.2014 06:20 13,3 C 12,2 C 95 % 1005,1 hPa 0,0 l/m 0 min 0 min 0,0 UV-I 0 W/m 31,7 km/h (5 Bft)
18.08.2014 06:22 13,4 C 12,2 C 95 % 1005,1 hPa 0,0 l/m 0 min 0 min 0,0 UV-I 0 W/m 28,2 km/h (4 Bft)
18.08.2014 06:24 13,4 C 12,2 C 95 % 1005,1 hPa 0,0 l/m 0 min 0 min 0,0 UV-I 0 W/m 28,2 km/h (4 Bft)
18.08.2014 06:26 13,4 C 12,2 C 95 % 1005,1 hPa 0,0 l/m 0 min 0 min 0,0 UV-I 0 W/m 28,2 km/h (4 Bft)
18.08.2014 06:28 13,4 C 12,2 C 96 % 1005,1 hPa 0,0 l/m 0 min 0 min 0,0 UV-I 0 W/m 35,4 km/h (5 Bft)
18.08.2014 06:30 13,4 C 12,2 C 95 % 1005,1 hPa 0,0 l/m 0 min 0 min 0,0 UV-I 0 W/m 49,5 km/h (6 Bft)
18.08.2014 06:32 13,4 C 12,2 C 95 % 1005,1 hPa 0,0 l/m 0 min 0 min 0,0 UV-I 5 W/m 46,0 km/h (6 Bft)
18.08.2014 06:34 13,4 C 12,2 C 95 % 1005,1 hPa 0,0 l/m 0 min 0 min 0,0 UV-I 6 W/m 35,4 km/h (5 Bft)
18.08.2014 06:36 13,4 C 12,2 C 95 % 1005,1 hPa 0,0 l/m 0 min 0 min 0,0 UV-I 9 W/m 28,2 km/h (4 Bft)
18.08.2014 06:38 13,4 C 12,2 C 95 % 1005,1 hPa 0,0 l/m 0 min 0 min 0,0 UV-I 10 W/m 28,2 km/h (4 Bft)
18.08.2014 06:40 13,4 C 12,2 C 95 % 1005,1 hPa 0,0 l/m 0 min 0 min 0,0 UV-I 12 W/m 24,7 km/h (4 Bft)
18.08.2014 06:42 13,4 C 12,2 C 95 % 1005,1 hPa 0,0 l/m 0 min 0 min 0,0 UV-I 13 W/m 24,7 km/h (4 Bft)
18.08.2014 06:44 13,4 C 12,2 C 95 % 1005,1 hPa 0,0 l/m 0 min 0 min 0,0 UV-I 15 W/m 35,4 km/h (5 Bft)
18.08.2014 06:46 13,3 C 12,2 C 95 % 1005,1 hPa 0,0 l/m 0 min 0 min 0,0 UV-I 16 W/m 28,2 km/h (4 Bft)
18.08.2014 06:48 13,3 C 11,7 C 95 % 1005,1 hPa 0,0 l/m 0 min 0 min 0,0 UV-I 18 W/m 31,7 km/h (5 Bft)
18.08.2014 06:50 13,3 C 11,7 C 95 % 1005,1 hPa 0,0 l/m 0 min 0 min 0,0 UV-I 21 W/m 35,4 km/h (5 Bft)
18.08.2014 06:52 13,3 C 11,7 C 95 % 1005,1 hPa 0,0 l/m 0 min 0 min 0,0 UV-I 23 W/m 35,4 km/h (5 Bft)
18.08.2014 06:54 13,2 C 11,7 C 95 % 1005,1 hPa 0,0 l/m 0 min 0 min 0,0 UV-I 25 W/m 28,2 km/h (4 Bft)
18.08.2014 06:56 13,2 C 11,7 C 95 % 1005,1 hPa 0,0 l/m 0 min 0 min 0,0 UV-I 28 W/m 31,7 km/h (5 Bft)
18.08.2014 06:58 13,2 C 11,7 C 95 % 1005,1 hPa 0,0 l/m 0 min 0 min 0,0 UV-I 31 W/m 21,3 km/h (4 Bft)
18.08.2014 07:00 13,2 C 11,7 C 95 % 1005,0 hPa 0,0 l/m 2 min 0 min 0,0 UV-I 41 W/m 31,7 km/h (5 Bft)
18.08.2014 07:02 13,2 C 11,7 C 95 % 1005,1 hPa 0,0 l/m 2 min 0 min 0,0 UV-I 51 W/m 31,7 km/h (5 Bft)
18.08.2014 07:04 13,1 C 11,7 C 95 % 1005,1 hPa 0,0 l/m 0 min 0 min 0,0 UV-I 41 W/m 38,9 km/h (6 Bft)
18.08.2014 07:06 13,1 C 11,7 C 95 % 1005,1 hPa 0,0 l/m 2 min 0 min 0,0 UV-I 57 W/m 28,2 km/h (4 Bft)
18.08.2014 07:08 13,1 C 11,7 C 95 % 1005,1 hPa 0,0 l/m 2 min 0 min 0,0 UV-I 67 W/m 31,7 km/h (5 Bft)
18.08.2014 07:10 13,1 C 11,7 C 95 % 1005,1 hPa 0,0 l/m 2 min 0 min 0,0 UV-I 68 W/m 46,0 km/h (6 Bft)
18.08.2014 07:12 13,1 C 11,7 C 95 % 1005,1 hPa 0,0 l/m 2 min 0 min 0,0 UV-I 69 W/m 38,9 km/h (6 Bft)
18.08.2014 07:14 13,1 C 11,7 C 95 % 1005,0 hPa 0,0 l/m 2 min 0 min 0,0 UV-I 78 W/m 35,4 km/h (5 Bft)
18.08.2014 07:16 13,1 C 11,7 C 95 % 1005,1 hPa 0,0 l/m 2 min 0 min 0,0 UV-I 91 W/m 46,0 km/h (6 Bft)
18.08.2014 07:18 13,1 C 11,7 C 95 % 1005,2 hPa 0,0 l/m 2 min 0 min 0,0 UV-I 98 W/m 42,4 km/h (6 Bft)
18.08.2014 07:20 13,1 C 11,7 C 95 % 1005,1 hPa 0,0 l/m 2 min 0 min 0,0 UV-I 102 W/m 24,7 km/h (4 Bft)
18.08.2014 07:22 13,1 C 11,7 C 95 % 1005,2 hPa 0,0 l/m 2 min 0 min 0,0 UV-I 101 W/m 35,4 km/h (5 Bft)
18.08.2014 07:24 13,1 C 11,7 C 95 % 1005,2 hPa 0,0 l/m 2 min 0 min 0,0 UV-I 97 W/m 31,7 km/h (5 Bft)
18.08.2014 07:26 13,1 C 11,7 C 95 % 1005,2 hPa 0,0 l/m 2 min 0 min 0,0 UV-I 91 W/m 31,7 km/h (5 Bft)
18.08.2014 07:28 13,1 C 12,2 C 95 % 1005,2 hPa 0,0 l/m 2 min 0 min 0,0 UV-I 117 W/m 46,0 km/h (6 Bft)
18.08.2014 07:30 13,1 C 12,2 C 95 % 1005,2 hPa 0,0 l/m 2 min 0 min 0,0 UV-I 88 W/m 38,9 km/h (6 Bft)
18.08.2014 07:32 13,1 C 12,2 C 95 % 1005,2 hPa 0,0 l/m 2 min 0 min 0,0 UV-I 80 W/m 28,2 km/h (4 Bft)
18.08.2014 07:34 13,2 C 12,2 C 95 % 1005,3 hPa 0,0 l/m 2 min 0 min 0,0 UV-I 122 W/m 31,7 km/h (5 Bft)
18.08.2014 07:36 13,2 C 12,2 C 95 % 1005,3 hPa 0,0 l/m 0 min 0 min 0,0 UV-I 58 W/m 28,2 km/h (4 Bft)
18.08.2014 07:38 13,2 C 12,2 C 95 % 1005,2 hPa 0,0 l/m 0 min 0 min 0,0 UV-I 46 W/m 35,4 km/h (5 Bft)
18.08.2014 07:40 13,2 C 12,2 C 95 % 1005,2 hPa 0,0 l/m 0 min 0 min 0,0 UV-I 67 W/m 38,9 km/h (6 Bft)
18.08.2014 07:42 13,2 C 12,2 C 95 % 1005,2 hPa 0,0 l/m 0 min 0 min 0,0 UV-I 72 W/m 38,9 km/h (6 Bft)
18.08.2014 07:44 13,2 C 12,2 C 95 % 1005,2 hPa 0,0 l/m 2 min 0 min 0,0 UV-I 175 W/m 49,5 km/h (6 Bft)
18.08.2014 07:46 13,2 C 12,2 C 95 % 1005,2 hPa 0,0 l/m 2 min 0 min 0,0 UV-I 170 W/m 38,9 km/h (6 Bft)
18.08.2014 07:48 13,2 C 12,2 C 95 % 1005,2 hPa 0,0 l/m 2 min 0 min 0,0 UV-I 105 W/m 28,2 km/h (4 Bft)
18.08.2014 07:50 13,2 C 12,2 C 95 % 1005,2 hPa 0,0 l/m 2 min 0 min 0,0 UV-I 130 W/m 31,7 km/h (5 Bft)
18.08.2014 07:52 13,2 C 12,2 C 95 % 1005,2 hPa 0,0 l/m 2 min 0 min 0,0 UV-I 172 W/m 28,2 km/h (4 Bft)
18.08.2014 07:54 13,2 C 12,2 C 95 % 1005,2 hPa 0,0 l/m 2 min 0 min 0,0 UV-I 190 W/m 35,4 km/h (5 Bft)
18.08.2014 07:56 13,2 C 12,2 C 95 % 1005,2 hPa 0,0 l/m 2 min 0 min 0,0 UV-I 198 W/m 31,7 km/h (5 Bft)
18.08.2014 07:58 13,3 C 12,2 C 95 % 1005,1 hPa 0,0 l/m 2 min 0 min 0,0 UV-I 203 W/m 46,0 km/h (6 Bft)
18.08.2014 08:00 13,3 C 12,2 C 95 % 1005,1 hPa 0,0 l/m 2 min 0 min 0,0 UV-I 199 W/m 49,5 km/h (6 Bft)
18.08.2014 08:02 13,3 C 12,2 C 95 % 1005,1 hPa 0,0 l/m 2 min 0 min 0,0 UV-I 213 W/m 35,4 km/h (5 Bft)
18.08.2014 08:04 13,3 C 12,2 C 95 % 1005,1 hPa 0,0 l/m 2 min 0 min 0,0 UV-I 219 W/m 38,9 km/h (6 Bft)
18.08.2014 08:06 13,3 C 12,2 C 95 % 1005,1 hPa 0,0 l/m 2 min 0 min 0,0 UV-I 223 W/m 46,0 km/h (6 Bft)
18.08.2014 08:08 13,3 C 12,2 C 95 % 1005,2 hPa 0,0 l/m 2 min 0 min 0,0 UV-I 218 W/m 53,0 km/h (7 Bft)
18.08.2014 08:10 13,4 C 12,2 C 94 % 1005,1 hPa 0,0 l/m 2 min 0 min 0,0 UV-I 232 W/m 38,9 km/h (6 Bft)
18.08.2014 08:12 13,4 C 12,2 C 94 % 1005,1 hPa 0,0 l/m 2 min 0 min 0,0 UV-I 244 W/m 35,4 km/h (5 Bft)
18.08.2014 08:14 13,4 C 12,2 C 94 % 1005,1 hPa 0,0 l/m 2 min 0 min 0,0 UV-I 244 W/m 31,7 km/h (5 Bft)
18.08.2014 08:16 13,4 C 12,2 C 94 % 1005,1 hPa 0,0 l/m 2 min 0 min 0,0 UV-I 254 W/m 46,0 km/h (6 Bft)
18.08.2014 08:18 13,5 C 12,2 C 94 % 1005,1 hPa 0,0 l/m 2 min 0 min 0,0 UV-I 252 W/m 42,4 km/h (6 Bft)
18.08.2014 08:20 13,5 C 12,2 C 94 % 1005,0 hPa 0,0 l/m 2 min 0 min 0,0 UV-I 243 W/m 53,0 km/h (7 Bft)
18.08.2014 08:22 13,5 C 12,2 C 94 % 1005,0 hPa 0,0 l/m 2 min 0 min 0,0 UV-I 272 W/m 38,9 km/h (6 Bft)
18.08.2014 08:24 13,6 C 12,2 C 94 % 1005,1 hPa 0,0 l/m 2 min 0 min 0,0 UV-I 276 W/m 42,4 km/h (6 Bft)
18.08.2014 08:26 13,6 C 12,2 C 93 % 1005,1 hPa 0,0 l/m 2 min 0 min 0,0 UV-I 270 W/m 49,5 km/h (6 Bft)
18.08.2014 08:28 13,6 C 12,2 C 93 % 1005,1 hPa 0,0 l/m 2 min 0 min 0,0 UV-I 278 W/m 56,5 km/h (7 Bft)
18.08.2014 08:30 13,6 C 12,2 C 93 % 1005,2 hPa 0,0 l/m 2 min 0 min 0,0 UV-I 291 W/m 46,0 km/h (6 Bft)
18.08.2014 08:32 13,7 C 12,2 C 93 % 1005,1 hPa 0,0 l/m 2 min 0 min 0,0 UV-I 293 W/m 46,0 km/h (6 Bft)
18.08.2014 08:34 13,7 C 12,2 C 93 % 1005,1 hPa 0,0 l/m 2 min 0 min 0,0 UV-I 299 W/m 42,4 km/h (6 Bft)
18.08.2014 08:36 13,7 C 12,2 C 92 % 1005,1 hPa 0,0 l/m 2 min 0 min 0,0 UV-I 296 W/m 42,4 km/h (6 Bft)
18.08.2014 08:38 13,8 C 12,2 C 93 % 1005,0 hPa 0,0 l/m 2 min 0 min 0,0 UV-I 310 W/m 35,4 km/h (5 Bft)
18.08.2014 08:40 13,8 C 12,8 C 92 % 1005,1 hPa 0,0 l/m 2 min 0 min 0,0 UV-I 313 W/m 49,5 km/h (6 Bft)
18.08.2014 08:42 13,9 C 12,8 C 92 % 1005,2 hPa 0,0 l/m 2 min 0 min 0,0 UV-I 320 W/m 42,4 km/h (6 Bft)
18.08.2014 08:44 13,9 C 12,8 C 92 % 1005,1 hPa 0,0 l/m 2 min 0 min 0,0 UV-I 325 W/m 53,0 km/h (7 Bft)
18.08.2014 08:46 14,0 C 12,8 C 92 % 1005,1 hPa 0,0 l/m 2 min 0 min 0,0 UV-I 329 W/m 31,7 km/h (5 Bft)
18.08.2014 08:48 14,0 C 12,8 C 91 % 1005,1 hPa 0,0 l/m 2 min 0 min 0,0 UV-I 335 W/m 49,5 km/h (6 Bft)
18.08.2014 08:50 14,1 C 12,8 C 91 % 1005,2 hPa 0,0 l/m 2 min 0 min 0,0 UV-I 343 W/m 53,0 km/h (7 Bft)
18.08.2014 08:52 14,1 C 12,8 C 91 % 1005,1 hPa 0,0 l/m 2 min 0 min 0,0 UV-I 347 W/m 56,5 km/h (7 Bft)
18.08.2014 08:54 14,2 C 12,8 C 91 % 1005,1 hPa 0,0 l/m 2 min 0 min 0,0 UV-I 348 W/m 38,9 km/h (6 Bft)
18.08.2014 08:56 14,2 C 12,8 C 91 % 1005,1 hPa 0,0 l/m 2 min 0 min 0,0 UV-I 358 W/m 49,5 km/h (6 Bft)
18.08.2014 08:58 14,2 C 12,8 C 91 % 1005,1 hPa 0,0 l/m 2 min 0 min 0,0 UV-I 381 W/m 60,2 km/h (7 Bft)
18.08.2014 09:00 14,2 C 12,8 C 90 % 1005,2 hPa 0,0 l/m 2 min 0 min 0,0 UV-I 374 W/m 49,5 km/h (6 Bft)
18.08.2014 09:02 14,2 C 12,8 C 90 % 1005,2 hPa 0,0 l/m 2 min 0 min 0,0 UV-I 376 W/m 60,2 km/h (7 Bft)
18.08.2014 09:04 14,2 C 12,8 C 90 % 1005,2 hPa 0,0 l/m 2 min 0 min 0,4 UV-I 413 W/m 56,5 km/h (7 Bft)
18.08.2014 09:06 14,4 C 12,8 C 89 % 1005,2 hPa 0,0 l/m 2 min 0 min 0,5 UV-I 403 W/m 42,4 km/h (6 Bft)
18.08.2014 09:08 14,5 C 12,8 C 89 % 1005,2 hPa 0,0 l/m 2 min 0 min 0,3 UV-I 406 W/m 38,9 km/h (6 Bft)
18.08.2014 09:10 14,6 C 13,3 C 89 % 1005,2 hPa 0,0 l/m 2 min 0 min 0,6 UV-I 414 W/m 38,9 km/h (6 Bft)
18.08.2014 09:12 14,6 C 13,3 C 89 % 1005,1 hPa 0,0 l/m 2 min 0 min 0,6 UV-I 413 W/m 38,9 km/h (6 Bft)
18.08.2014 09:14 14,7 C 13,3 C 89 % 1005,2 hPa 0,0 l/m 2 min 0 min 0,6 UV-I 414 W/m 46,0 km/h (6 Bft)
18.08.2014 09:16 14,7 C 13,3 C 88 % 1005,2 hPa 0,0 l/m 2 min 0 min 0,3 UV-I 420 W/m 53,0 km/h (7 Bft)
18.08.2014 09:18 14,7 C 13,3 C 88 % 1005,2 hPa 0,0 l/m 2 min 0 min 0,4 UV-I 438 W/m 60,2 km/h (7 Bft)
18.08.2014 09:20 14,7 C 13,3 C 88 % 1005,3 hPa 0,0 l/m 2 min 0 min 0,7 UV-I 418 W/m 60,2 km/h (7 Bft)
18.08.2014 09:22 14,8 C 13,3 C 88 % 1005,2 hPa 0,0 l/m 0 min 0 min 0,4 UV-I 187 W/m 53,0 km/h (7 Bft)
18.08.2014 09:24 14,9 C 13,3 C 88 % 1005,3 hPa 0,0 l/m 2 min 0 min 0,8 UV-I 223 W/m 28,2 km/h (4 Bft)
18.08.2014 09:26 15,1 C 13,3 C 88 % 1005,2 hPa 0,0 l/m 2 min 0 min 0,5 UV-I 472 W/m 42,4 km/h (6 Bft)
18.08.2014 09:28 15,1 C 13,3 C 87 % 1005,3 hPa 0,0 l/m 2 min 0 min 0,5 UV-I 480 W/m 46,0 km/h (6 Bft)
18.08.2014 09:30 15,1 C 13,9 C 87 % 1005,3 hPa 0,0 l/m 2 min 0 min 0,7 UV-I 508 W/m 67,1 km/h (8 Bft)
18.08.2014 09:32 15,1 C 13,9 C 86 % 1005,3 hPa 0,0 l/m 2 min 0 min 0,6 UV-I 525 W/m 49,5 km/h (6 Bft)
18.08.2014 09:34 15,2 C 13,9 C 86 % 1005,4 hPa 0,0 l/m 2 min 0 min 0,5 UV-I 519 W/m 31,7 km/h (5 Bft)
18.08.2014 09:36 15,3 C 13,9 C 86 % 1005,4 hPa 0,0 l/m 2 min 0 min 0,6 UV-I 534 W/m 38,9 km/h (6 Bft)
18.08.2014 09:38 15,4 C 13,9 C 86 % 1005,4 hPa 0,0 l/m 2 min 0 min 0,9 UV-I 534 W/m 53,0 km/h (7 Bft)
18.08.2014 09:40 15,3 C 13,9 C 85 % 1005,3 hPa 0,0 l/m 2 min 0 min 0,7 UV-I 491 W/m 53,0 km/h (7 Bft)
18.08.2014 09:42 15,3 C 13,9 C 84 % 1005,3 hPa 0,0 l/m 2 min 0 min 0,8 UV-I 448 W/m 74,2 km/h (8 Bft)
18.08.2014 09:44 15,3 C 14,4 C 82 % 1005,4 hPa 0,0 l/m 2 min 0 min 0,9 UV-I 448 W/m 70,6 km/h (8 Bft)
18.08.2014 09:46 15,4 C 15,6 C 83 % 1005,5 hPa 0,0 l/m 2 min 0 min 1,1 UV-I 483 W/m 53,0 km/h (7 Bft)
18.08.2014 09:48 15,5 C 16,1 C 83 % 1005,4 hPa 0,0 l/m 2 min 0 min 1,2 UV-I 524 W/m 31,7 km/h (5 Bft)
18.08.2014 09:50 15,7 C 16,7 C 83 % 1005,4 hPa 0,0 l/m 2 min 0 min 1,2 UV-I 526 W/m 53,0 km/h (7 Bft)
18.08.2014 09:52 15,8 C 17,2 C 83 % 1005,5 hPa 0,0 l/m 2 min 0 min 1,3 UV-I 570 W/m 56,5 km/h (7 Bft)
18.08.2014 09:54 15,8 C 17,2 C 82 % 1005,4 hPa 0,0 l/m 2 min 0 min 1,2 UV-I 558 W/m 56,5 km/h (7 Bft)
18.08.2014 09:56 15,8 C 17,2 C 82 % 1005,4 hPa 0,0 l/m 2 min 0 min 1,1 UV-I 551 W/m 56,5 km/h (7 Bft)
18.08.2014 09:58 15,8 C 16,7 C 81 % 1005,5 hPa 0,0 l/m 2 min 0 min 1,2 UV-I 552 W/m 60,2 km/h (7 Bft)
18.08.2014 10:00 15,8 C 16,7 C 81 % 1005,4 hPa 0,0 l/m 2 min 0 min 1,4 UV-I 531 W/m 60,2 km/h (7 Bft)
18.08.2014 10:02 15,8 C 16,7 C 80 % 1005,4 hPa 0,0 l/m 2 min 0 min 1,4 UV-I 533 W/m 56,5 km/h (7 Bft)
18.08.2014 10:04 15,8 C 16,7 C 80 % 1005,4 hPa 0,0 l/m 2 min 0 min 1,4 UV-I 534 W/m 60,2 km/h (7 Bft)
18.08.2014 10:06 15,8 C 16,7 C 80 % 1005,3 hPa 0,0 l/m 2 min 0 min 1,5 UV-I 532 W/m 46,0 km/h (6 Bft)
18.08.2014 10:08 15,9 C 16,1 C 80 % 1005,3 hPa 0,0 l/m 2 min 0 min 1,5 UV-I 544 W/m 60,2 km/h (7 Bft)
18.08.2014 10:10 16,0 C 16,1 C 80 % 1005,5 hPa 0,0 l/m 2 min 0 min 1,5 UV-I 547 W/m 46,0 km/h (6 Bft)
18.08.2014 10:12 16,1 C 15,6 C 78 % 1005,5 hPa 0,0 l/m 2 min 0 min 1,6 UV-I 553 W/m 67,1 km/h (8 Bft)
18.08.2014 10:14 16,1 C 15,0 C 77 % 1005,4 hPa 0,0 l/m 2 min 0 min 1,6 UV-I 561 W/m 63,7 km/h (8 Bft)
18.08.2014 10:16 16,1 C 15,0 C 76 % 1005,4 hPa 0,0 l/m 2 min 0 min 1,7 UV-I 556 W/m 56,5 km/h (7 Bft)
18.08.2014 10:18 16,1 C 15,0 C 76 % 1005,3 hPa 0,0 l/m 2 min 0 min 1,7 UV-I 550 W/m 63,7 km/h (8 Bft)
18.08.2014 10:20 16,2 C 15,0 C 77 % 1005,5 hPa 0,0 l/m 2 min 0 min 1,7 UV-I 554 W/m 46,0 km/h (6 Bft)
18.08.2014 10:22 16,3 C 15,0 C 77 % 1005,4 hPa 0,0 l/m 2 min 0 min 1,8 UV-I 564 W/m 42,4 km/h (6 Bft)
18.08.2014 10:24 16,4 C 15,0 C 77 % 1005,4 hPa 0,0 l/m 2 min 0 min 1,8 UV-I 567 W/m 49,5 km/h (6 Bft)
18.08.2014 10:26 16,5 C 15,6 C 76 % 1005,5 hPa 0,0 l/m 2 min 0 min 1,8 UV-I 564 W/m 74,2 km/h (8 Bft)
18.08.2014 10:28 16,5 C 15,0 C 75 % 1005,4 hPa 0,0 l/m 2 min 0 min 1,9 UV-I 577 W/m 60,2 km/h (7 Bft)
18.08.2014 10:30 16,5 C 15,6 C 75 % 1005,4 hPa 0,0 l/m 2 min 0 min 1,9 UV-I 588 W/m 67,1 km/h (8 Bft)
18.08.2014 10:32 16,5 C 15,6 C 75 % 1005,5 hPa 0,0 l/m 2 min 0 min 1,9 UV-I 596 W/m 74,2 km/h (8 Bft)
18.08.2014 10:34 16,5 C 15,6 C 74 % 1005,5 hPa 0,0 l/m 2 min 0 min 2,0 UV-I 617 W/m 60,2 km/h (7 Bft)
18.08.2014 10:36 16,5 C 15,6 C 75 % 1005,5 hPa 0,0 l/m 2 min 0 min 2,0 UV-I 608 W/m 60,2 km/h (7 Bft)
18.08.2014 10:38 16,6 C 15,6 C 74 % 1005,5 hPa 0,0 l/m 2 min 0 min 2,1 UV-I 600 W/m 67,1 km/h (8 Bft)
18.08.2014 10:40 16,6 C 15,6 C 73 % 1005,5 hPa 0,0 l/m 2 min 0 min 1,6 UV-I 603 W/m 77,7 km/h (9 Bft)
18.08.2014 10:42 16,5 C 15,0 C 72 % 1005,5 hPa 0,0 l/m 2 min 0 min 2,1 UV-I 615 W/m 81,2 km/h (9 Bft)
18.08.2014 10:44 16,5 C 15,6 C 71 % 1005,5 hPa 0,0 l/m 2 min 0 min 2,2 UV-I 636 W/m 74,2 km/h (8 Bft)
18.08.2014 10:46 16,4 C 15,0 C 72 % 1005,7 hPa 0,0 l/m 2 min 0 min 1,7 UV-I 668 W/m 70,6 km/h (8 Bft)
18.08.2014 10:48 16,5 C 15,6 C 74 % 1005,5 hPa 0,0 l/m 2 min 0 min 2,1 UV-I 667 W/m 46,0 km/h (6 Bft)
18.08.2014 10:50 16,6 C 15,6 C 73 % 1005,6 hPa 0,0 l/m 2 min 0 min 2,3 UV-I 689 W/m 70,6 km/h (8 Bft)
18.08.2014 10:52 16,6 C 15,6 C 71 % 1005,7 hPa 0,0 l/m 2 min 0 min 2,2 UV-I 705 W/m 63,7 km/h (8 Bft)
18.08.2014 10:54 16,6 C 15,6 C 72 % 1005,7 hPa 0,0 l/m 2 min 0 min 1,6 UV-I 714 W/m 63,7 km/h (8 Bft)
18.08.2014 10:56 16,6 C 15,6 C 72 % 1005,6 hPa 0,0 l/m 2 min 0 min 1,9 UV-I 714 W/m 74,2 km/h (8 Bft)
18.08.2014 10:58 16,6 C 15,6 C 72 % 1005,7 hPa 0,0 l/m 2 min 0 min 1,9 UV-I 714 W/m 60,2 km/h (7 Bft)
18.08.2014 11:00 16,7 C 15,6 C 73 % 1005,6 hPa 0,0 l/m 2 min 0 min 2,0 UV-I 714 W/m 53,0 km/h (7 Bft)
18.08.2014 11:02 16,8 C 16,1 C 73 % 1005,6 hPa 0,0 l/m 2 min 0 min 2,4 UV-I 746 W/m 70,6 km/h (8 Bft)
18.08.2014 11:04 16,9 C 16,1 C 73 % 1005,7 hPa 0,0 l/m 2 min 0 min 2,0 UV-I 741 W/m 53,0 km/h (7 Bft)
18.08.2014 11:06 16,9 C 15,6 C 73 % 1005,7 hPa 0,0 l/m 2 min 0 min 1,2 UV-I 525 W/m 53,0 km/h (7 Bft)
18.08.2014 11:08 16,8 C 15,6 C 71 % 1005,6 hPa 0,0 l/m 2 min 0 min 2,5 UV-I 454 W/m 74,2 km/h (8 Bft)
18.08.2014 11:10 16,8 C 15,6 C 70 % 1005,7 hPa 0,0 l/m 2 min 0 min 2,5 UV-I 728 W/m 74,2 km/h (8 Bft)
18.08.2014 11:12 16,7 C 15,6 C 71 % 1005,7 hPa 0,0 l/m 2 min 0 min 1,3 UV-I 518 W/m 49,5 km/h (6 Bft)
18.08.2014 11:14 16,8 C 15,6 C 73 % 1005,7 hPa 0,0 l/m 2 min 0 min 2,7 UV-I 472 W/m 42,4 km/h (6 Bft)
18.08.2014 11:16 16,9 C 16,1 C 72 % 1005,6 hPa 0,0 l/m 2 min 0 min 2,9 UV-I 723 W/m 74,2 km/h (8 Bft)
18.08.2014 11:18 17,1 C 16,1 C 70 % 1005,6 hPa 0,0 l/m 2 min 0 min 2,9 UV-I 712 W/m 88,4 km/h (10 Bft)
18.08.2014 11:20 17,1 C 16,1 C 69 % 1005,7 hPa 0,0 l/m 2 min 0 min 2,9 UV-I 712 W/m 67,1 km/h (8 Bft)
18.08.2014 11:22 17,2 C 16,7 C 69 % 1005,8 hPa 0,0 l/m 2 min 0 min 2,8 UV-I 741 W/m 49,5 km/h (6 Bft)
18.08.2014 11:24 17,3 C 16,7 C 70 % 1005,7 hPa 0,0 l/m 2 min 0 min 2,7 UV-I 753 W/m 46,0 km/h (6 Bft)
18.08.2014 11:26 17,4 C 16,7 C 69 % 1005,7 hPa 0,0 l/m 2 min 0 min 2,9 UV-I 735 W/m 56,5 km/h (7 Bft)
18.08.2014 11:28 17,4 C 16,1 C 67 % 1005,8 hPa 0,0 l/m 2 min 0 min 1,5 UV-I 737 W/m 60,2 km/h (7 Bft)
18.08.2014 11:30 17,2 C 16,1 C 67 % 1005,9 hPa 0,0 l/m 2 min 0 min 1,7 UV-I 524 W/m 67,1 km/h (8 Bft)
18.08.2014 11:32 17,1 C 16,1 C 69 % 1005,7 hPa 0,0 l/m 2 min 0 min 3,2 UV-I 573 W/m 67,1 km/h (8 Bft)
18.08.2014 11:34 17,2 C 16,7 C 70 % 1005,8 hPa 0,0 l/m 2 min 0 min 3,0 UV-I 835 W/m 60,2 km/h (7 Bft)
18.08.2014 11:36 17,4 C 16,7 C 68 % 1005,8 hPa 0,0 l/m 2 min 0 min 2,6 UV-I 842 W/m 77,7 km/h (9 Bft)
18.08.2014 11:38 17,4 C 16,7 C 67 % 1005,8 hPa 0,0 l/m 2 min 0 min 2,4 UV-I 842 W/m 56,5 km/h (7 Bft)
18.08.2014 11:40 17,3 C 16,7 C 68 % 1005,7 hPa 0,0 l/m 2 min 0 min 1,8 UV-I 682 W/m 38,9 km/h (6 Bft)
18.08.2014 11:42 17,3 C 16,1 C 68 % 1005,7 hPa 0,0 l/m 0 min 0 min 1,5 UV-I 272 W/m 77,7 km/h (9 Bft)
18.08.2014 11:44 17,2 C 16,1 C 68 % 1005,8 hPa 0,0 l/m 0 min 0 min 1,7 UV-I 330 W/m 56,5 km/h (7 Bft)
18.08.2014 11:46 17,2 C 16,1 C 69 % 1006,0 hPa 0,0 l/m 0 min 0 min 1,7 UV-I 330 W/m 49,5 km/h (6 Bft)
18.08.2014 11:48 17,1 C 16,1 C 69 % 1005,9 hPa 0,0 l/m 0 min 0 min 1,8 UV-I 323 W/m 56,5 km/h (7 Bft)
18.08.2014 11:50 17,1 C 16,1 C 68 % 1005,9 hPa 0,0 l/m 0 min 0 min 1,7 UV-I 307 W/m 77,7 km/h (9 Bft)
18.08.2014 11:52 16,9 C 16,1 C 68 % 1005,9 hPa 0,0 l/m 0 min 0 min 1,7 UV-I 295 W/m 53,0 km/h (7 Bft)
18.08.2014 11:54 16,8 C 16,1 C 68 % 1006,0 hPa 0,0 l/m 0 min 0 min 1,8 UV-I 316 W/m 77,7 km/h (9 Bft)
18.08.2014 11:56 16,8 C 16,1 C 69 % 1005,9 hPa 0,0 l/m 2 min 0 min 1,9 UV-I 360 W/m 70,6 km/h (8 Bft)
18.08.2014 11:58 16,9 C 16,1 C 71 % 1005,9 hPa 0,0 l/m 0 min 0 min 1,7 UV-I 329 W/m 38,9 km/h (6 Bft)
18.08.2014 12:00 17,0 C 16,7 C 71 % 1005,9 hPa 0,0 l/m 0 min 0 min 2,3 UV-I 303 W/m 70,6 km/h (8 Bft)
18.08.2014 12:02 17,2 C 16,7 C 70 % 1006,0 hPa 0,0 l/m 0 min 0 min 2,1 UV-I 301 W/m 60,2 km/h (7 Bft)
18.08.2014 12:06 17,3 C 16,7 C 66 % 1006,0 hPa 0,0 l/m 0 min 0 min 1,5 UV-I 344 W/m 74,2 km/h (8 Bft)
18.08.2014 12:08 17,3 C 16,7 C 66 % 1005,9 hPa 0,0 l/m 2 min 0 min 2,4 UV-I 403 W/m 67,1 km/h (8 Bft)
18.08.2014 12:10 17,2 C 16,1 C 67 % 1006,0 hPa 0,0 l/m 0 min 0 min 1,3 UV-I 267 W/m 81,2 km/h (9 Bft)
18.08.2014 12:12 17,1 C 16,1 C 67 % 1006,0 hPa 0,0 l/m 0 min 0 min 1,6 UV-I 252 W/m 67,1 km/h (8 Bft)
18.08.2014 12:14 17,0 C 16,1 C 69 % 1006,0 hPa 0,0 l/m 0 min 0 min 2,2 UV-I 316 W/m 56,5 km/h (7 Bft)
18.08.2014 12:16 16,9 C 15,6 C 68 % 1006,0 hPa 0,0 l/m 0 min 0 min 1,8 UV-I 281 W/m 63,7 km/h (8 Bft)
18.08.2014 12:18 16,8 C 15,6 C 69 % 1006,0 hPa 0,0 l/m 0 min 0 min 1,5 UV-I 202 W/m 53,0 km/h (7 Bft)
18.08.2014 12:20 16,7 C 15,6 C 68 % 1006,0 hPa 0,0 l/m 0 min 0 min 1,4 UV-I 198 W/m 67,1 km/h (8 Bft)
18.08.2014 12:22 16,7 C 15,6 C 68 % 1006,0 hPa 0,0 l/m 0 min 0 min 1,4 UV-I 215 W/m 53,0 km/h (7 Bft)
18.08.2014 12:24 16,7 C 15,6 C 69 % 1006,0 hPa 0,0 l/m 0 min 0 min 1,5 UV-I 265 W/m 56,5 km/h (7 Bft)
18.08.2014 12:26 16,7 C 15,6 C 69 % 1006,0 hPa 0,0 l/m 0 min 0 min 1,4 UV-I 255 W/m 67,1 km/h (8 Bft)
18.08.2014 12:28 16,7 C 15,6 C 68 % 1006,1 hPa 0,0 l/m 0 min 0 min 1,2 UV-I 223 W/m 60,2 km/h (7 Bft)
18.08.2014 12:30 16,7 C 15,6 C 68 % 1006,1 hPa 0,0 l/m 0 min 0 min 1,1 UV-I 229 W/m 56,5 km/h (7 Bft)
18.08.2014 12:32 16,7 C 15,6 C 68 % 1006,0 hPa 0,0 l/m 0 min 0 min 1,5 UV-I 301 W/m 60,2 km/h (7 Bft)
18.08.2014 12:34 16,8 C 16,1 C 68 % 1006,1 hPa 0,0 l/m 0 min 0 min 1,7 UV-I 315 W/m 60,2 km/h (7 Bft)
18.08.2014 12:36 16,9 C 16,7 C 67 % 1006,1 hPa 0,0 l/m 0 min 0 min 2,3 UV-I 314 W/m 49,5 km/h (6 Bft)
18.08.2014 12:38 17,0 C 16,1 C 67 % 1006,1 hPa 0,0 l/m 0 min 0 min 1,3 UV-I 255 W/m 67,1 km/h (8 Bft)
18.08.2014 12:40 17,0 C 16,1 C 67 % 1006,1 hPa 0,0 l/m 0 min 0 min 0,9 UV-I 230 W/m 63,7 km/h (8 Bft)
18.08.2014 12:42 16,9 C 16,1 C 66 % 1006,1 hPa 0,0 l/m 0 min 0 min 1,3 UV-I 227 W/m 74,2 km/h (8 Bft)
18.08.2014 12:44 17,1 C 16,7 C 69 % 1006,1 hPa 0,0 l/m 0 min 0 min 1,6 UV-I 227 W/m 38,9 km/h (6 Bft)
18.08.2014 12:46 17,3 C 17,2 C 66 % 1006,0 hPa 0,0 l/m 0 min 0 min 2,2 UV-I 301 W/m 74,2 km/h (8 Bft)
18.08.2014 12:48 17,4 C 17,2 C 67 % 1006,1 hPa 0,0 l/m 0 min 0 min 2,6 UV-I 332 W/m 42,4 km/h (6 Bft)
18.08.2014 12:50 17,7 C 17,2 C 67 % 1006,0 hPa 0,0 l/m 0 min 0 min 2,4 UV-I 345 W/m 63,7 km/h (8 Bft)
18.08.2014 12:52 17,9 C 17,8 C 66 % 1006,1 hPa 0,0 l/m 2 min 0 min 2,8 UV-I 505 W/m 70,6 km/h (8 Bft)
18.08.2014 12:54 17,9 C 17,2 C 64 % 1006,2 hPa 0,0 l/m 2 min 0 min 1,7 UV-I 492 W/m 74,2 km/h (8 Bft)
18.08.2014 12:56 17,7 C 17,2 C 66 % 1006,1 hPa 0,0 l/m 0 min 0 min 1,5 UV-I 318 W/m 63,7 km/h (8 Bft)
18.08.2014 12:58 17,6 C 16,7 C 65 % 1006,1 hPa 0,0 l/m 0 min 0 min 1,7 UV-I 322 W/m 49,5 km/h (6 Bft)
18.08.2014 13:00 17,6 C 16,7 C 66 % 1006,1 hPa 0,0 l/m 0 min 0 min 1,6 UV-I 328 W/m 42,4 km/h (6 Bft)
18.08.2014 13:02 17,5 C 16,7 C 66 % 1006,1 hPa 0,0 l/m 0 min 0 min 2,0 UV-I 358 W/m 56,5 km/h (7 Bft)
18.08.2014 13:04 17,5 C 16,7 C 65 % 1006,0 hPa 0,0 l/m 0 min 0 min 1,9 UV-I 334 W/m 63,7 km/h (8 Bft)
18.08.2014 13:06 17,4 C 16,7 C 66 % 1006,1 hPa 0,0 l/m 0 min 0 min 1,9 UV-I 317 W/m 35,4 km/h (5 Bft)
18.08.2014 13:08 17,6 C 17,2 C 69 % 1006,1 hPa 0,0 l/m 0 min 0 min 2,4 UV-I 363 W/m 46,0 km/h (6 Bft)
18.08.2014 13:10 18,0 C 18,9 C 70 % 1006,1 hPa 0,0 l/m 2 min 0 min 4,1 UV-I 921 W/m 38,9 km/h (6 Bft)
18.08.2014 13:12 18,5 C 18,9 C 67 % 1006,1 hPa 0,0 l/m 2 min 0 min 4,3 UV-I 990 W/m 74,2 km/h (8 Bft)
18.08.2014 13:14 18,7 C 18,9 C 64 % 1006,0 hPa 0,0 l/m 2 min 0 min 3,5 UV-I 1025 W/m 63,7 km/h (8 Bft)
18.08.2014 13:16 18,8 C 18,9 C 64 % 1006,1 hPa 0,0 l/m 2 min 0 min 3,3 UV-I 1025 W/m 63,7 km/h (8 Bft)
18.08.2014 13:18 18,8 C 18,9 C 64 % 1006,1 hPa 0,0 l/m 2 min 0 min 2,6 UV-I 1025 W/m 53,0 km/h (7 Bft)
18.08.2014 13:20 18,7 C 18,3 C 64 % 1006,1 hPa 0,0 l/m 2 min 0 min 3,6 UV-I 964 W/m 84,9 km/h (9 Bft)
18.08.2014 13:22 18,8 C 18,3 C 64 % 1006,1 hPa 0,0 l/m 2 min 0 min 3,3 UV-I 842 W/m 67,1 km/h (8 Bft)
18.08.2014 13:24 18,6 C 18,3 C 64 % 1006,1 hPa 0,0 l/m 2 min 0 min 2,1 UV-I 554 W/m 42,4 km/h (6 Bft)
18.08.2014 13:26 18,4 C 17,8 C 65 % 1006,1 hPa 0,0 l/m 0 min 0 min 2,2 UV-I 370 W/m 49,5 km/h (6 Bft)
18.08.2014 13:28 18,3 C 17,8 C 63 % 1006,1 hPa 0,0 l/m 0 min 0 min 2,1 UV-I 367 W/m 56,5 km/h (7 Bft)
18.08.2014 13:30 18,2 C 17,8 C 65 % 1006,2 hPa 0,0 l/m 0 min 0 min 2,4 UV-I 360 W/m 63,7 km/h (8 Bft)
18.08.2014 13:32 18,1 C 17,2 C 64 % 1006,1 hPa 0,0 l/m 0 min 0 min 1,0 UV-I 245 W/m 49,5 km/h (6 Bft)
18.08.2014 13:34 17,9 C 16,7 C 64 % 1006,1 hPa 0,0 l/m 0 min 0 min 0,1 UV-I 152 W/m 56,5 km/h (7 Bft)
18.08.2014 13:36 17,7 C 16,1 C 65 % 1006,2 hPa 0,0 l/m 0 min 0 min 0,0 UV-I 105 W/m 63,7 km/h (8 Bft)
18.08.2014 13:38 17,4 C 16,1 C 66 % 1006,2 hPa 0,0 l/m 0 min 0 min 0,2 UV-I 146 W/m 53,0 km/h (7 Bft)
18.08.2014 13:40 17,3 C 16,1 C 66 % 1006,2 hPa 0,0 l/m 0 min 0 min 0,8 UV-I 207 W/m 53,0 km/h (7 Bft)
18.08.2014 13:42 17,2 C 16,1 C 66 % 1006,2 hPa 0,0 l/m 0 min 0 min 1,1 UV-I 241 W/m 49,5 km/h (6 Bft)
18.08.2014 13:44 17,3 C 16,7 C 68 % 1006,2 hPa 0,0 l/m 0 min 0 min 1,7 UV-I 308 W/m 53,0 km/h (7 Bft)
18.08.2014 13:46 17,4 C 16,7 C 68 % 1006,2 hPa 0,0 l/m 0 min 0 min 2,0 UV-I 338 W/m 53,0 km/h (7 Bft)
18.08.2014 13:48 17,5 C 16,7 C 68 % 1006,2 hPa 0,0 l/m 0 min 0 min 2,0 UV-I 329 W/m 46,0 km/h (6 Bft)
18.08.2014 13:50 17,6 C 17,2 C 67 % 1006,3 hPa 0,0 l/m 0 min 0 min 2,0 UV-I 335 W/m 49,5 km/h (6 Bft)
18.08.2014 13:52 17,7 C 17,2 C 68 % 1006,3 hPa 0,0 l/m 2 min 0 min 2,2 UV-I 392 W/m 46,0 km/h (6 Bft)
18.08.2014 13:54 17,7 C 17,2 C 67 % 1006,3 hPa 0,0 l/m 0 min 0 min 1,8 UV-I 329 W/m 74,2 km/h (8 Bft)
18.08.2014 13:56 17,7 C 17,2 C 68 % 1006,3 hPa 0,0 l/m 0 min 0 min 1,5 UV-I 295 W/m 42,4 km/h (6 Bft)
18.08.2014 13:58 17,6 C 16,7 C 67 % 1006,3 hPa 0,0 l/m 0 min 0 min 1,4 UV-I 271 W/m 88,4 km/h (10 Bft)
18.08.2014 14:00 17,6 C 16,7 C 66 % 1006,2 hPa 0,0 l/m 0 min 0 min 1,2 UV-I 252 W/m 60,2 km/h (7 Bft)
18.08.2014 14:02 17,4 C 16,7 C 67 % 1006,3 hPa 0,0 l/m 0 min 0 min 0,8 UV-I 187 W/m 49,5 km/h (6 Bft)
18.08.2014 14:04 17,3 C 16,1 C 67 % 1006,3 hPa 0,0 l/m 0 min 0 min 0,1 UV-I 117 W/m 67,1 km/h (8 Bft)
18.08.2014 14:06 17,2 C 16,1 C 68 % 1006,4 hPa 0,0 l/m 0 min 0 min 0,0 UV-I 85 W/m 49,5 km/h (6 Bft)
18.08.2014 14:08 17,1 C 15,6 C 68 % 1006,4 hPa 0,0 l/m 0 min 2 min 0,0 UV-I 69 W/m 49,5 km/h (6 Bft)
18.08.2014 14:10 16,9 C 15,6 C 69 % 1006,5 hPa 0,0 l/m 0 min 2 min 0,0 UV-I 60 W/m 63,7 km/h (8 Bft)
18.08.2014 14:12 16,8 C 15,0 C 70 % 1006,5 hPa 0,0 l/m 0 min 0 min 0,0 UV-I 59 W/m 42,4 km/h (6 Bft)
18.08.2014 14:14 16,7 C 15,0 C 71 % 1006,5 hPa 0,0 l/m 0 min 2 min 0,0 UV-I 60 W/m 31,7 km/h (5 Bft)
18.08.2014 14:16 16,6 C 14,4 C 72 % 1006,7 hPa 0,0 l/m 0 min 2 min 0,0 UV-I 54 W/m 46,0 km/h (6 Bft)
18.08.2014 14:18 16,4 C 13,9 C 73 % 1006,7 hPa 0,0 l/m 0 min 2 min 0,0 UV-I 53 W/m 46,0 km/h (6 Bft)
18.08.2014 14:20 16,2 C 13,9 C 74 % 1006,7 hPa 0,0 l/m 0 min 2 min 0,0 UV-I 52 W/m 49,5 km/h (6 Bft)
18.08.2014 14:22 16,0 C 13,9 C 76 % 1006,7 hPa 0,0 l/m 0 min 2 min 0,0 UV-I 50 W/m 38,9 km/h (6 Bft)
18.08.2014 14:24 15,8 C 13,9 C 76 % 1006,7 hPa 0,0 l/m 0 min 2 min 0,0 UV-I 69 W/m 46,0 km/h (6 Bft)
18.08.2014 14:26 15,6 C 13,9 C 78 % 1006,8 hPa 0,0 l/m 0 min 2 min 0,3 UV-I 149 W/m 53,0 km/h (7 Bft)
18.08.2014 14:28 15,5 C 13,3 C 80 % 1006,8 hPa 0,0 l/m 0 min 2 min 1,0 UV-I 236 W/m 35,4 km/h (5 Bft)
18.08.2014 14:30 15,5 C 13,3 C 82 % 1006,8 hPa 0,0 l/m 0 min 2 min 1,4 UV-I 246 W/m 28,2 km/h (4 Bft)
18.08.2014 14:32 15,5 C 13,9 C 83 % 1006,8 hPa 0,0 l/m 0 min 2 min 1,3 UV-I 236 W/m 24,7 km/h (4 Bft)
18.08.2014 14:34 15,6 C 13,9 C 83 % 1006,8 hPa 0,0 l/m 0 min 0 min 1,3 UV-I 238 W/m 24,7 km/h (4 Bft)
18.08.2014 14:36 15,7 C 13,9 C 84 % 1006,9 hPa 0,0 l/m 0 min 0 min 1,4 UV-I 258 W/m 21,3 km/h (4 Bft)
18.08.2014 14:38 15,7 C 13,9 C 83 % 1006,9 hPa 0,0 l/m 0 min 0 min 1,2 UV-I 248 W/m 24,7 km/h (4 Bft)
18.08.2014 14:40 15,8 C 13,9 C 82 % 1006,9 hPa 0,0 l/m 0 min 0 min 0,8 UV-I 191 W/m 21,3 km/h (4 Bft)
18.08.2014 14:42 15,7 C 13,9 C 81 % 1006,9 hPa 0,0 l/m 0 min 0 min 0,2 UV-I 138 W/m 35,4 km/h (5 Bft)
18.08.2014 14:44 15,7 C 13,9 C 81 % 1006,9 hPa 0,0 l/m 0 min 0 min 0,0 UV-I 117 W/m 28,2 km/h (4 Bft)
18.08.2014 14:46 15,7 C 13,9 C 82 % 1006,9 hPa 0,0 l/m 0 min 2 min 0,4 UV-I 183 W/m 38,9 km/h (6 Bft)
18.08.2014 14:48 15,8 C 14,4 C 82 % 1006,9 hPa 0,0 l/m 0 min 2 min 1,1 UV-I 252 W/m 24,7 km/h (4 Bft)
18.08.2014 14:50 15,8 C 14,4 C 83 % 1006,9 hPa 0,0 l/m 0 min 2 min 1,4 UV-I 298 W/m 28,2 km/h (4 Bft)
18.08.2014 14:52 16,0 C 15,0 C 83 % 1006,9 hPa 0,0 l/m 0 min 0 min 1,7 UV-I 342 W/m 28,2 km/h (4 Bft)
18.08.2014 14:54 16,1 C 15,0 C 81 % 1006,9 hPa 0,0 l/m 0 min 0 min 1,8 UV-I 305 W/m 46,0 km/h (6 Bft)
18.08.2014 14:56 16,2 C 15,0 C 81 % 1006,9 hPa 0,0 l/m 0 min 0 min 2,2 UV-I 350 W/m 31,7 km/h (5 Bft)
18.08.2014 14:58 16,2 C 15,0 C 81 % 1007,0 hPa 0,0 l/m 0 min 0 min 1,4 UV-I 321 W/m 46,0 km/h (6 Bft)
18.08.2014 15:00 16,2 C 15,0 C 78 % 1007,0 hPa 0,0 l/m 0 min 0 min 1,1 UV-I 179 W/m 53,0 km/h (7 Bft)
18.08.2014 15:02 16,1 C 15,0 C 78 % 1007,0 hPa 0,0 l/m 0 min 0 min 0,8 UV-I 174 W/m 60,2 km/h (7 Bft)
18.08.2014 15:04 16,1 C 15,0 C 78 % 1007,0 hPa 0,0 l/m 0 min 0 min 0,8 UV-I 181 W/m 38,9 km/h (6 Bft)
18.08.2014 15:06 16,0 C 15,0 C 78 % 1007,0 hPa 0,0 l/m 0 min 0 min 0,9 UV-I 205 W/m 42,4 km/h (6 Bft)
18.08.2014 15:08 16,0 C 15,6 C 79 % 1007,0 hPa 0,0 l/m 0 min 0 min 1,2 UV-I 268 W/m 35,4 km/h (5 Bft)
18.08.2014 15:10 16,1 C 15,6 C 80 % 1007,0 hPa 0,0 l/m 0 min 0 min 1,8 UV-I 305 W/m 42,4 km/h (6 Bft)
18.08.2014 15:12 16,2 C 16,1 C 78 % 1006,9 hPa 0,0 l/m 2 min 0 min 2,8 UV-I 440 W/m 38,9 km/h (6 Bft)
18.08.2014 15:14 16,6 C 16,1 C 78 % 1007,0 hPa 0,0 l/m 2 min 0 min 3,1 UV-I 692 W/m 38,9 km/h (6 Bft)
18.08.2014 15:16 17,1 C 16,7 C 79 % 1007,0 hPa 0,0 l/m 2 min 0 min 3,1 UV-I 676 W/m 49,5 km/h (6 Bft)
18.08.2014 15:18 17,3 C 16,7 C 75 % 1006,9 hPa 0,0 l/m 2 min 0 min 3,1 UV-I 678 W/m 49,5 km/h (6 Bft)
18.08.2014 15:20 17,7 C 17,2 C 75 % 1006,9 hPa 0,0 l/m 2 min 0 min 3,1 UV-I 692 W/m 63,7 km/h (8 Bft)
18.08.2014 15:22 17,7 C 17,2 C 73 % 1007,0 hPa 0,0 l/m 2 min 0 min 3,1 UV-I 706 W/m 74,2 km/h (8 Bft)
18.08.2014 15:24 17,9 C 17,2 C 72 % 1007,0 hPa 0,0 l/m 2 min 0 min 3,1 UV-I 735 W/m 74,2 km/h (8 Bft)
18.08.2014 15:26 18,1 C 17,8 C 72 % 1007,0 hPa 0,0 l/m 2 min 0 min 2,8 UV-I 736 W/m 56,5 km/h (7 Bft)
18.08.2014 15:28 18,3 C 17,8 C 73 % 1006,9 hPa 0,0 l/m 2 min 0 min 3,0 UV-I 696 W/m 46,0 km/h (6 Bft)
18.08.2014 15:30 18,5 C 17,8 C 71 % 1007,0 hPa 0,0 l/m 2 min 0 min 3,0 UV-I 690 W/m 56,5 km/h (7 Bft)
18.08.2014 15:32 18,5 C 17,8 C 70 % 1007,0 hPa 0,0 l/m 2 min 0 min 3,0 UV-I 685 W/m 53,0 km/h (7 Bft)
18.08.2014 15:34 18,5 C 17,8 C 70 % 1006,9 hPa 0,0 l/m 2 min 0 min 2,9 UV-I 657 W/m 53,0 km/h (7 Bft)
18.08.2014 15:36 18,6 C 18,3 C 70 % 1006,9 hPa 0,0 l/m 2 min 0 min 2,6 UV-I 650 W/m 46,0 km/h (6 Bft)
18.08.2014 15:38 18,8 C 18,3 C 72 % 1007,0 hPa 0,0 l/m 2 min 0 min 2,4 UV-I 511 W/m 28,2 km/h (4 Bft)
18.08.2014 15:40 18,9 C 17,8 C 69 % 1007,0 hPa 0,0 l/m 0 min 0 min 2,0 UV-I 340 W/m 49,5 km/h (6 Bft)
18.08.2014 15:42 18,7 C 17,8 C 68 % 1007,0 hPa 0,0 l/m 0 min 0 min 2,6 UV-I 288 W/m 42,4 km/h (6 Bft)
18.08.2014 15:44 18,6 C 17,8 C 69 % 1007,0 hPa 0,0 l/m 0 min 0 min 2,0 UV-I 288 W/m 60,2 km/h (7 Bft)
18.08.2014 15:46 18,4 C 17,8 C 68 % 1006,9 hPa 0,0 l/m 0 min 0 min 1,1 UV-I 224 W/m 53,0 km/h (7 Bft)
18.08.2014 15:48 18,2 C 17,2 C 69 % 1007,0 hPa 0,0 l/m 0 min 0 min 0,4 UV-I 151 W/m 42,4 km/h (6 Bft)
18.08.2014 15:50 17,9 C 16,7 C 70 % 1007,1 hPa 0,0 l/m 0 min 0 min 0,0 UV-I 70 W/m 38,9 km/h (6 Bft)
18.08.2014 15:52 17,7 C 16,1 C 72 % 1007,2 hPa 0,0 l/m 0 min 0 min 0,0 UV-I 50 W/m 42,4 km/h (6 Bft)
18.08.2014 15:54 17,5 C 14,4 C 75 % 1007,4 hPa 0,2 l/m 0 min 2 min 0,0 UV-I 66 W/m 77,7 km/h (9 Bft)
18.08.2014 15:56 16,8 C 13,3 C 78 % 1007,4 hPa 0,2 l/m 0 min 2 min 0,0 UV-I 93 W/m 42,4 km/h (6 Bft)
18.08.2014 15:58 16,2 C 12,8 C 82 % 1007,4 hPa 0,0 l/m 0 min 2 min 0,0 UV-I 138 W/m 46,0 km/h (6 Bft)
18.08.2014 16:00 15,8 C 13,9 C 85 % 1007,5 hPa 0,0 l/m 0 min 2 min 0,8 UV-I 200 W/m 31,7 km/h (5 Bft)
18.08.2014 16:02 15,9 C 14,4 C 88 % 1007,5 hPa 0,0 l/m 2 min 2 min 2,1 UV-I 722 W/m 31,7 km/h (5 Bft)
18.08.2014 16:04 15,9 C 14,4 C 88 % 1007,4 hPa 0,0 l/m 2 min 0 min 1,9 UV-I 722 W/m 38,9 km/h (6 Bft)
18.08.2014 16:06 16,0 C 14,4 C 88 % 1007,3 hPa 0,0 l/m 0 min 0 min 1,3 UV-I 305 W/m 35,4 km/h (5 Bft)
18.08.2014 16:08 16,1 C 14,4 C 88 % 1007,4 hPa 0,0 l/m 0 min 0 min 1,5 UV-I 297 W/m 42,4 km/h (6 Bft)
18.08.2014 16:10 16,0 C 14,4 C 86 % 1007,5 hPa 0,2 l/m 0 min 0 min 1,3 UV-I 284 W/m 49,5 km/h (6 Bft)
18.08.2014 16:12 16,1 C 14,4 C 86 % 1007,5 hPa 0,0 l/m 0 min 0 min 1,2 UV-I 259 W/m 31,7 km/h (5 Bft)
18.08.2014 16:14 16,2 C 14,4 C 87 % 1007,5 hPa 0,0 l/m 0 min 0 min 1,2 UV-I 264 W/m 46,0 km/h (6 Bft)
18.08.2014 16:16 16,2 C 14,4 C 86 % 1007,5 hPa 0,0 l/m 0 min 0 min 1,1 UV-I 240 W/m 38,9 km/h (6 Bft)
18.08.2014 16:18 16,2 C 14,4 C 86 % 1007,5 hPa 0,0 l/m 0 min 0 min 1,1 UV-I 261 W/m 35,4 km/h (5 Bft)
18.08.2014 16:20 16,3 C 14,4 C 85 % 1007,6 hPa 0,0 l/m 0 min 0 min 1,1 UV-I 292 W/m 49,5 km/h (6 Bft)
18.08.2014 16:22 16,4 C 14,4 C 84 % 1007,5 hPa 0,0 l/m 0 min 0 min 1,1 UV-I 305 W/m 31,7 km/h (5 Bft)
18.08.2014 16:24 16,6 C 15,0 C 84 % 1007,6 hPa 0,0 l/m 2 min 0 min 1,3 UV-I 357 W/m 28,2 km/h (4 Bft)
18.08.2014 16:26 16,8 C 15,0 C 84 % 1007,7 hPa 0,0 l/m 2 min 0 min 1,3 UV-I 346 W/m 46,0 km/h (6 Bft)
18.08.2014 16:28 16,9 C 15,0 C 82 % 1007,6 hPa 0,0 l/m 2 min 0 min 1,3 UV-I 409 W/m 63,7 km/h (8 Bft)
18.08.2014 16:30 16,9 C 15,0 C 80 % 1007,6 hPa 0,0 l/m 2 min 0 min 1,9 UV-I 387 W/m 56,5 km/h (7 Bft)
18.08.2014 16:32 17,3 C 15,0 C 82 % 1007,6 hPa 0,0 l/m 2 min 0 min 1,9 UV-I 579 W/m 49,5 km/h (6 Bft)
18.08.2014 16:34 17,5 C 15,0 C 78 % 1007,6 hPa 0,0 l/m 2 min 0 min 1,5 UV-I 569 W/m 46,0 km/h (6 Bft)
18.08.2014 16:36 17,6 C 15,0 C 77 % 1007,5 hPa 0,0 l/m 2 min 0 min 1,6 UV-I 507 W/m 67,1 km/h (8 Bft)
18.08.2014 16:38 17,5 C 15,0 C 76 % 1007,6 hPa 0,0 l/m 0 min 0 min 1,1 UV-I 192 W/m 60,2 km/h (7 Bft)
18.08.2014 16:40 17,4 C 15,0 C 76 % 1007,6 hPa 0,0 l/m 0 min 0 min 1,3 UV-I 185 W/m 42,4 km/h (6 Bft)
18.08.2014 16:42 17,4 C 15,0 C 77 % 1007,7 hPa 0,0 l/m 0 min 0 min 1,0 UV-I 252 W/m 60,2 km/h (7 Bft)
18.08.2014 16:44 17,3 C 14,4 C 75 % 1007,6 hPa 0,0 l/m 0 min 0 min 0,8 UV-I 206 W/m 70,6 km/h (8 Bft)
18.08.2014 16:46 17,1 C 13,9 C 73 % 1007,8 hPa 0,0 l/m 0 min 0 min 0,6 UV-I 161 W/m 60,2 km/h (7 Bft)
18.08.2014 16:48 16,9 C 13,9 C 74 % 1007,8 hPa 0,0 l/m 0 min 0 min 0,6 UV-I 154 W/m 35,4 km/h (5 Bft)
18.08.2014 16:50 16,8 C 13,9 C 75 % 1007,8 hPa 0,0 l/m 0 min 0 min 0,5 UV-I 157 W/m 38,9 km/h (6 Bft)
18.08.2014 16:52 16,7 C 13,9 C 75 % 1007,8 hPa 0,0 l/m 0 min 0 min 0,1 UV-I 161 W/m 46,0 km/h (6 Bft)
18.08.2014 16:54 16,6 C 13,9 C 75 % 1007,8 hPa 0,0 l/m 0 min 0 min 0,0 UV-I 148 W/m 63,7 km/h (8 Bft)
18.08.2014 16:56 16,6 C 13,9 C 75 % 1007,8 hPa 0,0 l/m 0 min 0 min 0,0 UV-I 133 W/m 67,1 km/h (8 Bft)
18.08.2014 16:58 16,4 C 13,9 C 75 % 1007,9 hPa 0,0 l/m 0 min 0 min 0,0 UV-I 125 W/m 53,0 km/h (7 Bft)
18.08.2014 17:00 16,4 C 13,3 C 76 % 1007,8 hPa 0,0 l/m 0 min 0 min 0,0 UV-I 118 W/m 46,0 km/h (6 Bft)
18.08.2014 17:02 16,3 C 13,3 C 76 % 1007,9 hPa 0,0 l/m 0 min 0 min 0,0 UV-I 115 W/m 46,0 km/h (6 Bft)
18.08.2014 17:04 16,2 C 13,3 C 77 % 1007,9 hPa 0,0 l/m 0 min 0 min 0,0 UV-I 119 W/m 46,0 km/h (6 Bft)
18.08.2014 17:06 16,2 C 13,9 C 78 % 1008,0 hPa 0,0 l/m 0 min 0 min 0,0 UV-I 114 W/m 49,5 km/h (6 Bft)
18.08.2014 17:08 16,2 C 13,3 C 77 % 1008,1 hPa 0,0 l/m 0 min 0 min 0,0 UV-I 92 W/m 46,0 km/h (6 Bft)
18.08.2014 17:10 16,2 C 13,3 C 78 % 1008,3 hPa 0,0 l/m 0 min 2 min 0,0 UV-I 56 W/m 42,4 km/h (6 Bft)
18.08.2014 17:12 16,1 C 12,8 C 78 % 1008,4 hPa 0,0 l/m 0 min 2 min 0,0 UV-I 36 W/m 49,5 km/h (6 Bft)
18.08.2014 17:14 15,7 C 12,2 C 81 % 1008,4 hPa 0,2 l/m 0 min 2 min 0,0 UV-I 36 W/m 56,5 km/h (7 Bft)
18.08.2014 17:16 15,3 C 12,2 C 82 % 1008,3 hPa 0,2 l/m 0 min 2 min 0,0 UV-I 47 W/m 38,9 km/h (6 Bft)
18.08.2014 17:18 14,8 C 12,2 C 84 % 1008,4 hPa 0,0 l/m 0 min 2 min 0,0 UV-I 68 W/m 35,4 km/h (5 Bft)
18.08.2014 17:20 14,4 C 12,2 C 86 % 1008,3 hPa 0,0 l/m 0 min 2 min 0,0 UV-I 93 W/m 24,7 km/h (4 Bft)
18.08.2014 17:22 14,2 C 12,2 C 87 % 1008,3 hPa 0,0 l/m 0 min 2 min 0,0 UV-I 116 W/m 31,7 km/h (5 Bft)
18.08.2014 17:24 14,2 C 12,2 C 87 % 1008,3 hPa 0,0 l/m 0 min 0 min 0,0 UV-I 117 W/m 17,7 km/h (3 Bft)
18.08.2014 17:26 14,2 C 12,2 C 89 % 1008,3 hPa 0,0 l/m 0 min 0 min 0,0 UV-I 111 W/m 21,3 km/h (4 Bft)
18.08.2014 17:28 14,2 C 12,8 C 90 % 1008,4 hPa 0,0 l/m 0 min 0 min 0,0 UV-I 117 W/m 14,2 km/h (3 Bft)
18.08.2014 17:30 14,2 C 12,8 C 90 % 1008,4 hPa 0,0 l/m 0 min 0 min 0,0 UV-I 135 W/m 14,2 km/h (3 Bft)
18.08.2014 17:32 14,2 C 12,8 C 91 % 1008,4 hPa 0,0 l/m 0 min 0 min 0,0 UV-I 138 W/m 17,7 km/h (3 Bft)
18.08.2014 17:34 14,2 C 13,3 C 91 % 1008,4 hPa 0,0 l/m 0 min 0 min 0,0 UV-I 148 W/m 14,2 km/h (3 Bft)
18.08.2014 17:36 14,2 C 13,3 C 91 % 1008,4 hPa 0,0 l/m 0 min 0 min 0,0 UV-I 156 W/m 3,5 km/h (1 Bft)
18.08.2014 17:38 14,3 C 13,3 C 91 % 1008,3 hPa 0,0 l/m 0 min 0 min 0,0 UV-I 135 W/m 17,7 km/h (3 Bft)
18.08.2014 17:40 14,4 C 13,3 C 91 % 1008,4 hPa 0,0 l/m 0 min 0 min 0,0 UV-I 68 W/m 10,7 km/h (2 Bft)
18.08.2014 17:42 14,4 C 12,8 C 91 % 1008,6 hPa 0,0 l/m 0 min 0 min 0,0 UV-I 22 W/m 21,3 km/h (4 Bft)
18.08.2014 17:44 14,4 C 12,8 C 91 % 1008,7 hPa 0,0 l/m 0 min 0 min 0,0 UV-I 16 W/m 31,7 km/h (5 Bft)
18.08.2014 17:46 14,3 C 12,8 C 91 % 1008,7 hPa 0,0 l/m 0 min 0 min 0,0 UV-I 20 W/m 31,7 km/h (5 Bft)
18.08.2014 17:48 14,3 C 12,8 C 91 % 1008,8 hPa 0,0 l/m 0 min 2 min 0,0 UV-I 33 W/m 42,4 km/h (6 Bft)
18.08.2014 17:50 14,2 C 12,8 C 91 % 1008,9 hPa 0,0 l/m 0 min 2 min 0,0 UV-I 40 W/m 49,5 km/h (6 Bft)
18.08.2014 17:52 14,2 C 12,2 C 91 % 1008,9 hPa 0,0 l/m 0 min 2 min 0,0 UV-I 48 W/m 35,4 km/h (5 Bft)
18.08.2014 17:54 14,2 C 12,2 C 91 % 1008,9 hPa 0,2 l/m 0 min 2 min 0,0 UV-I 55 W/m 53,0 km/h (7 Bft)
18.08.2014 17:56 14,1 C 11,7 C 90 % 1008,9 hPa 0,0 l/m 0 min 2 min 0,0 UV-I 60 W/m 53,0 km/h (7 Bft)
18.08.2014 17:58 13,9 C 11,7 C 90 % 1008,9 hPa 0,0 l/m 0 min 2 min 0,0 UV-I 67 W/m 38,9 km/h (6 Bft)
18.08.2014 18:00 13,7 C 12,2 C 90 % 1008,9 hPa 0,0 l/m 0 min 2 min 0,0 UV-I 75 W/m 31,7 km/h (5 Bft)
18.08.2014 18:02 13,7 C 12,2 C 90 % 1008,9 hPa 0,0 l/m 0 min 0 min 0,0 UV-I 66 W/m 31,7 km/h (5 Bft)
18.08.2014 18:06 13,6 C 12,2 C 91 % 1008,9 hPa 0,0 l/m 0 min 0 min 0,0 UV-I 61 W/m 35,4 km/h (5 Bft)
18.08.2014 18:08 13,4 C 12,2 C 91 % 1008,8 hPa 0,0 l/m 0 min 0 min 0,0 UV-I 54 W/m 28,2 km/h (4 Bft)
18.08.2014 18:10 13,4 C 12,2 C 91 % 1008,8 hPa 0,0 l/m 0 min 0 min 0,0 UV-I 47 W/m 42,4 km/h (6 Bft)
18.08.2014 18:12 13,4 C 11,7 C 91 % 1008,9 hPa 0,0 l/m 0 min 0 min 0,0 UV-I 40 W/m 24,7 km/h (4 Bft)
18.08.2014 18:14 13,4 C 11,7 C 91 % 1009,0 hPa 0,0 l/m 0 min 2 min 0,0 UV-I 39 W/m 21,3 km/h (4 Bft)
18.08.2014 18:16 13,4 C 11,7 C 91 % 1008,9 hPa 0,2 l/m 0 min 2 min 0,0 UV-I 41 W/m 21,3 km/h (4 Bft)
18.08.2014 18:18 13,4 C 11,7 C 91 % 1008,9 hPa 0,0 l/m 0 min 2 min 0,0 UV-I 45 W/m 24,7 km/h (4 Bft)
18.08.2014 18:20 13,4 C 11,7 C 92 % 1008,9 hPa 0,0 l/m 0 min 2 min 0,0 UV-I 46 W/m 28,2 km/h (4 Bft)
18.08.2014 18:22 13,3 C 11,7 C 92 % 1008,9 hPa 0,0 l/m 0 min 2 min 0,0 UV-I 46 W/m 21,3 km/h (4 Bft)
18.08.2014 18:24 13,4 C 11,7 C 92 % 1009,0 hPa 0,0 l/m 0 min 0 min 0,0 UV-I 43 W/m 49,5 km/h (6 Bft)
18.08.2014 18:26 13,3 C 11,7 C 92 % 1009,0 hPa 0,0 l/m 0 min 2 min 0,0 UV-I 37 W/m 42,4 km/h (6 Bft)
18.08.2014 18:28 13,2 C 11,7 C 92 % 1009,0 hPa 0,0 l/m 0 min 2 min 0,0 UV-I 43 W/m 28,2 km/h (4 Bft)
18.08.2014 18:30 13,2 C 11,7 C 92 % 1008,9 hPa 0,0 l/m 0 min 2 min 0,0 UV-I 55 W/m 28,2 km/h (4 Bft)
18.08.2014 18:32 13,2 C 11,7 C 92 % 1009,0 hPa 0,0 l/m 0 min 0 min 0,0 UV-I 64 W/m 21,3 km/h (4 Bft)
18.08.2014 18:34 13,2 C 12,2 C 93 % 1008,9 hPa 0,0 l/m 0 min 0 min 0,0 UV-I 67 W/m 24,7 km/h (4 Bft)
18.08.2014 18:36 13,2 C 11,7 C 93 % 1009,0 hPa 0,0 l/m 0 min 0 min 0,0 UV-I 65 W/m 28,2 km/h (4 Bft)
18.08.2014 18:38 13,2 C 11,7 C 93 % 1009,1 hPa 0,0 l/m 0 min 0 min 0,0 UV-I 52 W/m 31,7 km/h (5 Bft)
18.08.2014 18:40 13,2 C 11,7 C 93 % 1009,1 hPa 0,0 l/m 0 min 0 min 0,0 UV-I 36 W/m 24,7 km/h (4 Bft)
18.08.2014 18:42 13,2 C 11,7 C 93 % 1009,1 hPa 0,0 l/m 0 min 0 min 0,0 UV-I 29 W/m 24,7 km/h (4 Bft)
18.08.2014 18:44 13,2 C 11,7 C 93 % 1009,1 hPa 0,0 l/m 0 min 0 min 0,0 UV-I 27 W/m 17,7 km/h (3 Bft)
18.08.2014 18:46 13,2 C 11,7 C 93 % 1009,0 hPa 0,0 l/m 0 min 2 min 0,0 UV-I 28 W/m 21,3 km/h (4 Bft)
18.08.2014 18:48 13,2 C 11,7 C 93 % 1009,1 hPa 0,0 l/m 0 min 2 min 0,0 UV-I 31 W/m 17,7 km/h (3 Bft)
18.08.2014 18:50 13,2 C 11,7 C 93 % 1009,0 hPa 0,2 l/m 0 min 2 min 0,0 UV-I 33 W/m 24,7 km/h (4 Bft)
18.08.2014 18:52 13,2 C 11,7 C 93 % 1009,0 hPa 0,0 l/m 0 min 2 min 0,0 UV-I 38 W/m 35,4 km/h (5 Bft)
18.08.2014 18:54 13,1 C 11,7 C 93 % 1009,0 hPa 0,0 l/m 0 min 2 min 0,0 UV-I 49 W/m 28,2 km/h (4 Bft)
18.08.2014 18:56 13,1 C 11,7 C 93 % 1009,0 hPa 0,0 l/m 0 min 0 min 0,0 UV-I 58 W/m 21,3 km/h (4 Bft)
18.08.2014 18:58 13,2 C 11,7 C 94 % 1009,0 hPa 0,0 l/m 0 min 0 min 0,0 UV-I 68 W/m 17,7 km/h (3 Bft)
18.08.2014 19:00 13,2 C 12,2 C 94 % 1009,0 hPa 0,0 l/m 0 min 0 min 0,0 UV-I 84 W/m 17,7 km/h (3 Bft)
18.08.2014 19:02 13,2 C 12,2 C 94 % 1009,0 hPa 0,0 l/m 0 min 0 min 0,0 UV-I 89 W/m 31,7 km/h (5 Bft)
18.08.2014 19:04 13,3 C 12,2 C 94 % 1009,1 hPa 0,0 l/m 0 min 0 min 0,0 UV-I 78 W/m 42,4 km/h (6 Bft)
18.08.2014 19:06 13,3 C 12,2 C 94 % 1009,1 hPa 0,0 l/m 0 min 0 min 0,0 UV-I 61 W/m 21,3 km/h (4 Bft)
18.08.2014 19:08 13,3 C 12,2 C 94 % 1009,0 hPa 0,0 l/m 0 min 0 min 0,0 UV-I 44 W/m 24,7 km/h (4 Bft)
18.08.2014 19:10 13,3 C 12,2 C 94 % 1009,0 hPa 0,0 l/m 0 min 2 min 0,0 UV-I 37 W/m 28,2 km/h (4 Bft)
18.08.2014 19:12 13,3 C 12,2 C 94 % 1009,0 hPa 0,0 l/m 0 min 2 min 0,0 UV-I 35 W/m 28,2 km/h (4 Bft)
18.08.2014 19:14 13,3 C 12,2 C 94 % 1009,0 hPa 0,0 l/m 0 min 0 min 0,0 UV-I 35 W/m 31,7 km/h (5 Bft)
18.08.2014 19:16 13,3 C 12,2 C 94 % 1009,0 hPa 0,0 l/m 0 min 0 min 0,0 UV-I 39 W/m 28,2 km/h (4 Bft)
18.08.2014 19:18 13,3 C 12,2 C 94 % 1009,1 hPa 0,0 l/m 0 min 0 min 0,0 UV-I 42 W/m 21,3 km/h (4 Bft)
18.08.2014 19:20 13,3 C 12,2 C 94 % 1009,0 hPa 0,0 l/m 0 min 0 min 0,0 UV-I 43 W/m 24,7 km/h (4 Bft)
18.08.2014 19:22 13,3 C 12,2 C 94 % 1009,0 hPa 0,0 l/m 0 min 0 min 0,0 UV-I 42 W/m 28,2 km/h (4 Bft)
18.08.2014 19:24 13,4 C 12,2 C 94 % 1009,0 hPa 0,0 l/m 0 min 0 min 0,0 UV-I 40 W/m 31,7 km/h (5 Bft)
18.08.2014 19:26 13,3 C 12,2 C 94 % 1009,0 hPa 0,0 l/m 0 min 0 min 0,0 UV-I 40 W/m 17,7 km/h (3 Bft)
18.08.2014 19:28 13,3 C 12,2 C 94 % 1009,0 hPa 0,0 l/m 0 min 0 min 0,0 UV-I 39 W/m 17,7 km/h (3 Bft)
18.08.2014 19:30 13,3 C 12,2 C 93 % 1009,0 hPa 0,0 l/m 0 min 0 min 0,0 UV-I 42 W/m 17,7 km/h (3 Bft)
18.08.2014 19:32 13,4 C 12,2 C 93 % 1009,1 hPa 0,0 l/m 0 min 0 min 0,0 UV-I 45 W/m 28,2 km/h (4 Bft)
18.08.2014 19:34 13,4 C 12,2 C 93 % 1009,1 hPa 0,0 l/m 0 min 0 min 0,0 UV-I 46 W/m 21,3 km/h (4 Bft)
18.08.2014 19:36 13,4 C 12,2 C 93 % 1009,1 hPa 0,0 l/m 0 min 0 min 0,0 UV-I 50 W/m 21,3 km/h (4 Bft)
18.08.2014 19:38 13,4 C 12,2 C 93 % 1009,1 hPa 0,0 l/m 0 min 0 min 0,0 UV-I 59 W/m 24,7 km/h (4 Bft)
18.08.2014 19:40 13,4 C 12,2 C 93 % 1009,1 hPa 0,0 l/m 0 min 0 min 0,0 UV-I 62 W/m 14,2 km/h (3 Bft)
18.08.2014 19:42 13,4 C 12,2 C 93 % 1009,1 hPa 0,0 l/m 0 min 0 min 0,0 UV-I 54 W/m 24,7 km/h (4 Bft)
18.08.2014 19:44 13,5 C 12,2 C 93 % 1009,1 hPa 0,0 l/m 0 min 2 min 0,0 UV-I 46 W/m 17,7 km/h (3 Bft)
18.08.2014 19:46 13,4 C 12,2 C 93 % 1009,1 hPa 0,0 l/m 0 min 0 min 0,0 UV-I 43 W/m 24,7 km/h (4 Bft)
18.08.2014 19:48 13,4 C 12,2 C 93 % 1009,1 hPa 0,0 l/m 0 min 0 min 0,0 UV-I 41 W/m 24,7 km/h (4 Bft)
18.08.2014 19:50 13,4 C 12,2 C 93 % 1009,2 hPa 0,0 l/m 0 min 0 min 0,0 UV-I 39 W/m 24,7 km/h (4 Bft)
18.08.2014 19:52 13,4 C 12,2 C 93 % 1009,1 hPa 0,0 l/m 0 min 0 min 0,0 UV-I 35 W/m 24,7 km/h (4 Bft)
18.08.2014 19:54 13,4 C 12,2 C 93 % 1009,1 hPa 0,0 l/m 0 min 0 min 0,0 UV-I 31 W/m 21,3 km/h (4 Bft)
18.08.2014 19:56 13,4 C 12,2 C 93 % 1009,1 hPa 0,0 l/m 0 min 0 min 0,0 UV-I 26 W/m 31,7 km/h (5 Bft)
18.08.2014 19:58 13,4 C 12,2 C 93 % 1009,1 hPa 0,0 l/m 0 min 0 min 0,0 UV-I 26 W/m 28,2 km/h (4 Bft)
18.08.2014 20:00 13,4 C 12,2 C 93 % 1009,1 hPa 0,0 l/m 0 min 0 min 0,0 UV-I 25 W/m 24,7 km/h (4 Bft)
18.08.2014 20:02 13,4 C 11,7 C 93 % 1009,1 hPa 0,0 l/m 0 min 0 min 0,0 UV-I 21 W/m 17,7 km/h (3 Bft)
18.08.2014 20:04 13,4 C 12,2 C 93 % 1009,1 hPa 0,0 l/m 0 min 0 min 0,0 UV-I 18 W/m 24,7 km/h (4 Bft)
18.08.2014 20:06 13,3 C 12,2 C 93 % 1009,2 hPa 0,0 l/m 0 min 0 min 0,0 UV-I 18 W/m 17,7 km/h (3 Bft)
18.08.2014 20:08 13,3 C 12,2 C 93 % 1009,2 hPa 0,0 l/m 0 min 0 min 0,0 UV-I 18 W/m 24,7 km/h (4 Bft)
18.08.2014 20:10 13,3 C 11,7 C 93 % 1009,2 hPa 0,0 l/m 0 min 0 min 0,0 UV-I 16 W/m 17,7 km/h (3 Bft)
18.08.2014 20:12 13,3 C 11,7 C 93 % 1009,2 hPa 0,0 l/m 0 min 0 min 0,0 UV-I 14 W/m 28,2 km/h (4 Bft)
18.08.2014 20:14 13,3 C 11,7 C 93 % 1009,2 hPa 0,0 l/m 0 min 0 min 0,0 UV-I 13 W/m 17,7 km/h (3 Bft)
18.08.2014 20:16 13,3 C 11,7 C 94 % 1009,1 hPa 0,0 l/m 0 min 0 min 0,0 UV-I 11 W/m 17,7 km/h (3 Bft)
18.08.2014 20:18 13,3 C 11,7 C 94 % 1009,2 hPa 0,0 l/m 0 min 0 min 0,0 UV-I 11 W/m 21,3 km/h (4 Bft)
18.08.2014 20:20 13,3 C 11,7 C 94 % 1009,3 hPa 0,0 l/m 0 min 0 min 0,0 UV-I 11 W/m 21,3 km/h (4 Bft)
18.08.2014 20:22 13,3 C 11,7 C 94 % 1009,3 hPa 0,0 l/m 0 min 0 min 0,0 UV-I 9 W/m 17,7 km/h (3 Bft)
18.08.2014 20:24 13,3 C 11,7 C 94 % 1009,3 hPa 0,0 l/m 0 min 0 min 0,0 UV-I 7 W/m 14,2 km/h (3 Bft)
18.08.2014 20:26 13,3 C 11,7 C 94 % 1009,3 hPa 0,0 l/m 0 min 0 min 0,0 UV-I 6 W/m 24,7 km/h (4 Bft)
18.08.2014 20:28 13,2 C 11,7 C 94 % 1009,3 hPa 0,0 l/m 0 min 0 min 0,0 UV-I 5 W/m 21,3 km/h (4 Bft)
18.08.2014 20:30 13,3 C 11,7 C 94 % 1009,3 hPa 0,0 l/m 0 min 0 min 0,0 UV-I 6 W/m 21,3 km/h (4 Bft)
18.08.2014 20:32 13,2 C 11,7 C 94 % 1009,5 hPa 0,0 l/m 0 min 0 min 0,0 UV-I 7 W/m 17,7 km/h (3 Bft)
18.08.2014 20:34 13,2 C 11,7 C 94 % 1009,5 hPa 0,0 l/m 0 min 2 min 0,0 UV-I 7 W/m 14,2 km/h (3 Bft)
18.08.2014 20:36 13,2 C 11,7 C 94 % 1009,4 hPa 0,0 l/m 0 min 0 min 0,0 UV-I 7 W/m 17,7 km/h (3 Bft)
18.08.2014 20:38 13,2 C 11,7 C 94 % 1009,4 hPa 0,0 l/m 0 min 2 min 0,0 UV-I 7 W/m 14,2 km/h (3 Bft)
18.08.2014 20:40 13,2 C 11,7 C 94 % 1009,4 hPa 0,0 l/m 0 min 2 min 0,0 UV-I 7 W/m 14,2 km/h (3 Bft)
18.08.2014 20:42 13,2 C 11,7 C 94 % 1009,5 hPa 0,0 l/m 0 min 2 min 0,0 UV-I 5 W/m 10,7 km/h (2 Bft)
18.08.2014 20:44 13,2 C 11,7 C 94 % 1009,4 hPa 0,0 l/m 0 min 0 min 0,0 UV-I 5 W/m 14,2 km/h (3 Bft)
18.08.2014 20:46 13,2 C 11,7 C 94 % 1009,5 hPa 0,0 l/m 0 min 0 min 0,0 UV-I 0 W/m 3,5 km/h (1 Bft)
18.08.2014 20:48 13,2 C 11,7 C 94 % 1009,6 hPa 0,0 l/m 0 min 0 min 0,0 UV-I 0 W/m 10,7 km/h (2 Bft)
18.08.2014 20:50 13,2 C 11,7 C 94 % 1009,6 hPa 0,0 l/m 0 min 0 min 0,0 UV-I 0 W/m 17,7 km/h (3 Bft)
18.08.2014 20:52 13,1 C 11,7 C 94 % 1009,6 hPa 0,0 l/m 0 min 0 min 0,0 UV-I 0 W/m 14,2 km/h (3 Bft)
18.08.2014 20:54 13,1 C 11,7 C 95 % 1009,7 hPa 0,0 l/m 0 min 0 min 0,0 UV-I 0 W/m 17,7 km/h (3 Bft)
18.08.2014 20:56 13,1 C 11,7 C 95 % 1009,7 hPa 0,0 l/m 0 min 0 min 0,0 UV-I 0 W/m 21,3 km/h (4 Bft)
18.08.2014 20:58 13,1 C 11,7 C 95 % 1009,7 hPa 0,0 l/m 0 min 0 min 0,0 UV-I 0 W/m 3,5 km/h (1 Bft)
18.08.2014 21:00 13,1 C 11,7 C 95 % 1009,7 hPa 0,0 l/m 0 min 0 min 0,0 UV-I 0 W/m 17,7 km/h (3 Bft)
18.08.2014 21:02 13,1 C 11,7 C 95 % 1009,7 hPa 0,0 l/m 0 min 0 min 0,0 UV-I 0 W/m 21,3 km/h (4 Bft)
18.08.2014 21:04 13,1 C 11,7 C 95 % 1009,8 hPa 0,0 l/m 0 min 0 min 0,0 UV-I 0 W/m 10,7 km/h (2 Bft)
18.08.2014 21:06 13,1 C 11,7 C 95 % 1009,8 hPa 0,0 l/m 0 min 0 min 0,0 UV-I 0 W/m 10,7 km/h (2 Bft)
18.08.2014 21:08 13,1 C 11,7 C 95 % 1009,8 hPa 0,0 l/m 0 min 0 min 0,0 UV-I 0 W/m 17,7 km/h (3 Bft)
18.08.2014 21:10 13,1 C 11,7 C 95 % 1009,8 hPa 0,0 l/m 0 min 0 min 0,0 UV-I 0 W/m 10,7 km/h (2 Bft)
18.08.2014 21:12 13,1 C 11,7 C 95 % 1009,8 hPa 0,0 l/m 0 min 0 min 0,0 UV-I 0 W/m 14,2 km/h (3 Bft)
18.08.2014 21:14 13,1 C 11,7 C 95 % 1009,8 hPa 0,0 l/m 0 min 0 min 0,0 UV-I 0 W/m 24,7 km/h (4 Bft)
18.08.2014 21:16 13,1 C 11,7 C 95 % 1009,9 hPa 0,0 l/m 0 min 0 min 0,0 UV-I 0 W/m 21,3 km/h (4 Bft)
18.08.2014 21:18 13,1 C 11,7 C 95 % 1009,9 hPa 0,0 l/m 0 min 0 min 0,0 UV-I 0 W/m 17,7 km/h (3 Bft)
18.08.2014 21:20 13,1 C 11,7 C 95 % 1009,8 hPa 0,0 l/m 0 min 0 min 0,0 UV-I 0 W/m 14,2 km/h (3 Bft)
18.08.2014 21:22 13,1 C 11,7 C 95 % 1009,8 hPa 0,0 l/m 0 min 0 min 0,0 UV-I 0 W/m 14,2 km/h (3 Bft)
18.08.2014 21:24 13,1 C 11,7 C 95 % 1009,8 hPa 0,0 l/m 0 min 0 min 0,0 UV-I 0 W/m 21,3 km/h (4 Bft)
18.08.2014 21:26 13,1 C 11,7 C 95 % 1009,9 hPa 0,0 l/m 0 min 0 min 0,0 UV-I 0 W/m 17,7 km/h (3 Bft)
18.08.2014 21:28 13,1 C 11,7 C 95 % 1009,9 hPa 0,0 l/m 0 min 0 min 0,0 UV-I 0 W/m 21,3 km/h (4 Bft)
18.08.2014 21:30 13,1 C 11,7 C 95 % 1010,0 hPa 0,0 l/m 0 min 0 min 0,0 UV-I 0 W/m 14,2 km/h (3 Bft)
18.08.2014 21:32 13,1 C 11,7 C 95 % 1009,9 hPa 0,0 l/m 0 min 0 min 0,0 UV-I 0 W/m 17,7 km/h (3 Bft)
18.08.2014 21:34 13,1 C 11,7 C 95 % 1009,9 hPa 0,0 l/m 0 min 0 min 0,0 UV-I 0 W/m 21,3 km/h (4 Bft)
18.08.2014 21:36 13,1 C 11,7 C 95 % 1010,0 hPa 0,0 l/m 0 min 0 min 0,0 UV-I 0 W/m 14,2 km/h (3 Bft)
18.08.2014 21:38 13,1 C 11,7 C 95 % 1010,0 hPa 0,0 l/m 0 min 0 min 0,0 UV-I 0 W/m 17,7 km/h (3 Bft)
18.08.2014 21:40 13,1 C 11,7 C 95 % 1010,0 hPa 0,0 l/m 0 min 0 min 0,0 UV-I 0 W/m 17,7 km/h (3 Bft)
18.08.2014 21:42 13,1 C 11,7 C 95 % 1010,1 hPa 0,0 l/m 0 min 0 min 0,0 UV-I 0 W/m 21,3 km/h (4 Bft)
18.08.2014 21:44 13,1 C 11,7 C 95 % 1010,1 hPa 0,0 l/m 0 min 0 min 0,0 UV-I 0 W/m 14,2 km/h (3 Bft)
18.08.2014 21:46 13,1 C 11,7 C 95 % 1010,1 hPa 0,0 l/m 0 min 2 min 0,0 UV-I 0 W/m 24,7 km/h (4 Bft)
18.08.2014 21:48 13,1 C 11,7 C 95 % 1010,0 hPa 0,0 l/m 0 min 0 min 0,0 UV-I 0 W/m 14,2 km/h (3 Bft)
18.08.2014 21:50 13,1 C 11,7 C 95 % 1010,1 hPa 0,0 l/m 0 min 0 min 0,0 UV-I 0 W/m 21,3 km/h (4 Bft)
18.08.2014 21:52 13,1 C 11,7 C 95 % 1010,0 hPa 0,0 l/m 0 min 0 min 0,0 UV-I 0 W/m 17,7 km/h (3 Bft)
18.08.2014 21:54 13,0 C 11,7 C 95 % 1010,0 hPa 0,0 l/m 0 min 0 min 0,0 UV-I 0 W/m 3,5 km/h (1 Bft)
18.08.2014 21:56 13,0 C 11,7 C 95 % 1010,1 hPa 0,0 l/m 0 min 0 min 0,0 UV-I 0 W/m 10,7 km/h (2 Bft)
18.08.2014 21:58 13,0 C 11,7 C 95 % 1010,0 hPa 0,0 l/m 0 min 0 min 0,0 UV-I 0 W/m 3,5 km/h (1 Bft)
18.08.2014 22:00 12,9 C 11,7 C 95 % 1010,0 hPa 0,0 l/m 0 min 0 min 0,0 UV-I 0 W/m 0,0 km/h (0 Bft)
18.08.2014 22:02 12,9 C 11,1 C 95 % 1010,1 hPa 0,0 l/m 0 min 0 min 0,0 UV-I 0 W/m 10,7 km/h (2 Bft)
18.08.2014 22:04 12,8 C 11,1 C 95 % 1010,1 hPa 0,0 l/m 0 min 0 min 0,0 UV-I 0 W/m 7,1 km/h (2 Bft)
18.08.2014 22:06 12,8 C 11,1 C 95 % 1010,0 hPa 0,0 l/m 0 min 0 min 0,0 UV-I 0 W/m 3,5 km/h (1 Bft)
18.08.2014 22:08 12,7 C 11,1 C 95 % 1009,9 hPa 0,0 l/m 0 min 0 min 0,0 UV-I 0 W/m 14,2 km/h (3 Bft)
18.08.2014 22:10 12,7 C 11,1 C 95 % 1010,0 hPa 0,0 l/m 0 min 0 min 0,0 UV-I 0 W/m 17,7 km/h (3 Bft)
18.08.2014 22:12 12,6 C 11,1 C 95 % 1009,9 hPa 0,0 l/m 0 min 0 min 0,0 UV-I 0 W/m 10,7 km/h (2 Bft)
18.08.2014 22:14 12,6 C 11,1 C 95 % 1010,0 hPa 0,0 l/m 0 min 0 min 0,0 UV-I 0 W/m 14,2 km/h (3 Bft)
18.08.2014 22:16 12,5 C 11,1 C 95 % 1010,0 hPa 0,0 l/m 0 min 0 min 0,0 UV-I 0 W/m 10,7 km/h (2 Bft)
18.08.2014 22:18 12,4 C 11,1 C 95 % 1010,0 hPa 0,0 l/m 0 min 0 min 0,0 UV-I 0 W/m 10,7 km/h (2 Bft)
18.08.2014 22:20 12,4 C 11,1 C 95 % 1010,1 hPa 0,0 l/m 0 min 0 min 0,0 UV-I 0 W/m 14,2 km/h (3 Bft)
18.08.2014 22:22 12,4 C 11,1 C 95 % 1010,0 hPa 0,0 l/m 0 min 0 min 0,0 UV-I 0 W/m 10,7 km/h (2 Bft)
18.08.2014 22:24 12,3 C 10,6 C 95 % 1010,0 hPa 0,0 l/m 0 min 0 min 0,0 UV-I 0 W/m 0,0 km/h (0 Bft)
18.08.2014 22:26 12,3 C 10,6 C 95 % 1010,1 hPa 0,0 l/m 0 min 0 min 0,0 UV-I 0 W/m 10,7 km/h (2 Bft)
18.08.2014 22:28 12,2 C 10,6 C 95 % 1010,1 hPa 0,0 l/m 0 min 0 min 0,0 UV-I 0 W/m 14,2 km/h (3 Bft)
18.08.2014 22:30 12,2 C 10,6 C 95 % 1010,1 hPa 0,0 l/m 0 min 0 min 0,0 UV-I 0 W/m 21,3 km/h (4 Bft)
18.08.2014 22:32 12,2 C 10,6 C 95 % 1010,1 hPa 0,0 l/m 0 min 0 min 0,0 UV-I 0 W/m 3,5 km/h (1 Bft)
18.08.2014 22:34 12,2 C 10,6 C 95 % 1010,1 hPa 0,0 l/m 0 min 0 min 0,0 UV-I 0 W/m 10,7 km/h (2 Bft)
18.08.2014 22:36 12,2 C 10,6 C 96 % 1010,1 hPa 0,0 l/m 0 min 0 min 0,0 UV-I 0 W/m 17,7 km/h (3 Bft)
18.08.2014 22:38 12,1 C 10,6 C 96 % 1010,1 hPa 0,0 l/m 0 min 0 min 0,0 UV-I 0 W/m 0,0 km/h (0 Bft)
18.08.2014 22:40 12,1 C 10,6 C 96 % 1010,1 hPa 0,0 l/m 0 min 0 min 0,0 UV-I 0 W/m 10,7 km/h (2 Bft)
18.08.2014 22:42 12,1 C 11,1 C 96 % 1010,1 hPa 0,0 l/m 0 min 0 min 0,0 UV-I 0 W/m 10,7 km/h (2 Bft)
18.08.2014 22:44 12,1 C 10,6 C 96 % 1010,2 hPa 0,0 l/m 0 min 0 min 0,0 UV-I 0 W/m 3,5 km/h (1 Bft)
18.08.2014 22:46 12,1 C 10,6 C 96 % 1010,2 hPa 0,0 l/m 0 min 0 min 0,0 UV-I 0 W/m 10,7 km/h (2 Bft)
18.08.2014 22:48 12,0 C 10,6 C 96 % 1010,1 hPa 0,0 l/m 0 min 0 min 0,0 UV-I 0 W/m 7,1 km/h (2 Bft)
18.08.2014 22:50 12,0 C 10,6 C 96 % 1010,2 hPa 0,0 l/m 0 min 0 min 0,0 UV-I 0 W/m 10,7 km/h (2 Bft)
18.08.2014 22:52 12,0 C 10,6 C 96 % 1010,1 hPa 0,0 l/m 0 min 0 min 0,0 UV-I 0 W/m 0,0 km/h (0 Bft)
18.08.2014 22:54 12,0 C 10,6 C 96 % 1010,2 hPa 0,0 l/m 0 min 0 min 0,0 UV-I 0 W/m 0,0 km/h (0 Bft)
18.08.2014 22:56 11,9 C 10,6 C 96 % 1010,2 hPa 0,0 l/m 0 min 0 min 0,0 UV-I 0 W/m 10,7 km/h (2 Bft)
18.08.2014 22:58 11,9 C 10,6 C 96 % 1010,2 hPa 0,0 l/m 0 min 0 min 0,0 UV-I 0 W/m 0,0 km/h (0 Bft)
18.08.2014 23:00 11,9 C 10,6 C 96 % 1010,2 hPa 0,0 l/m 0 min 0 min 0,0 UV-I 0 W/m 10,7 km/h (2 Bft)
18.08.2014 23:02 11,9 C 10,6 C 96 % 1010,2 hPa 0,0 l/m 0 min 0 min 0,0 UV-I 0 W/m 21,3 km/h (4 Bft)
18.08.2014 23:04 11,9 C 10,6 C 96 % 1010,3 hPa 0,0 l/m 0 min 0 min 0,0 UV-I 0 W/m 17,7 km/h (3 Bft)
18.08.2014 23:06 11,8 C 10,6 C 96 % 1010,2 hPa 0,0 l/m 0 min 0 min 0,0 UV-I 0 W/m 17,7 km/h (3 Bft)
18.08.2014 23:08 11,8 C 10,6 C 96 % 1010,2 hPa 0,0 l/m 0 min 0 min 0,0 UV-I 0 W/m 10,7 km/h (2 Bft)
18.08.2014 23:10 11,8 C 10,6 C 96 % 1010,2 hPa 0,0 l/m 0 min 0 min 0,0 UV-I 0 W/m 17,7 km/h (3 Bft)
18.08.2014 23:12 11,8 C 10,6 C 96 % 1010,2 hPa 0,0 l/m 0 min 0 min 0,0 UV-I 0 W/m 17,7 km/h (3 Bft)
18.08.2014 23:14 11,8 C 10,6 C 96 % 1010,2 hPa 0,0 l/m 0 min 0 min 0,0 UV-I 0 W/m 14,2 km/h (3 Bft)
18.08.2014 23:16 11,7 C 10,6 C 96 % 1010,2 hPa 0,0 l/m 0 min 0 min 0,0 UV-I 0 W/m 14,2 km/h (3 Bft)
18.08.2014 23:18 11,7 C 10,6 C 96 % 1010,2 hPa 0,0 l/m 0 min 0 min 0,0 UV-I 0 W/m 0,0 km/h (0 Bft)
18.08.2014 23:20 11,7 C 10,6 C 96 % 1010,2 hPa 0,0 l/m 0 min 0 min 0,0 UV-I 0 W/m 0,0 km/h (0 Bft)
18.08.2014 23:22 11,7 C 10,6 C 96 % 1010,2 hPa 0,0 l/m 0 min 0 min 0,0 UV-I 0 W/m 0,0 km/h (0 Bft)
18.08.2014 23:24 11,7 C 10,6 C 96 % 1010,2 hPa 0,0 l/m 0 min 0 min 0,0 UV-I 0 W/m 0,0 km/h (0 Bft)
18.08.2014 23:26 11,7 C 10,6 C 96 % 1010,2 hPa 0,0 l/m 0 min 0 min 0,0 UV-I 0 W/m 0,0 km/h (0 Bft)
18.08.2014 23:28 11,7 C 10,6 C 96 % 1010,2 hPa 0,0 l/m 0 min 0 min 0,0 UV-I 0 W/m 0,0 km/h (0 Bft)
18.08.2014 23:30 11,7 C 10,6 C 96 % 1010,2 hPa 0,0 l/m 0 min 0 min 0,0 UV-I 0 W/m 0,0 km/h (0 Bft)
18.08.2014 23:32 11,6 C 10,6 C 96 % 1010,2 hPa 0,0 l/m 0 min 0 min 0,0 UV-I 0 W/m 0,0 km/h (0 Bft)
18.08.2014 23:34 11,6 C 10,6 C 96 % 1010,2 hPa 0,0 l/m 0 min 0 min 0,0 UV-I 0 W/m 14,2 km/h (3 Bft)
18.08.2014 23:36 11,6 C 10,6 C 96 % 1010,2 hPa 0,0 l/m 0 min 0 min 0,0 UV-I 0 W/m 3,5 km/h (1 Bft)
18.08.2014 23:38 11,6 C 10,6 C 96 % 1010,2 hPa 0,0 l/m 0 min 0 min 0,0 UV-I 0 W/m 10,7 km/h (2 Bft)
18.08.2014 23:40 11,5 C 10,6 C 96 % 1010,2 hPa 0,0 l/m 0 min 0 min 0,0 UV-I 0 W/m 0,0 km/h (0 Bft)
18.08.2014 23:42 11,5 C 10,0 C 97 % 1010,2 hPa 0,0 l/m 0 min 0 min 0,0 UV-I 0 W/m 3,5 km/h (1 Bft)
18.08.2014 23:44 11,4 C 10,0 C 97 % 1010,3 hPa 0,0 l/m 0 min 0 min 0,0 UV-I 0 W/m 14,2 km/h (3 Bft)
18.08.2014 23:46 11,4 C 10,0 C 97 % 1010,2 hPa 0,0 l/m 0 min 0 min 0,0 UV-I 0 W/m 14,2 km/h (3 Bft)
18.08.2014 23:48 11,4 C 10,0 C 96 % 1010,3 hPa 0,0 l/m 0 min 0 min 0,0 UV-I 0 W/m 7,1 km/h (2 Bft)
18.08.2014 23:50 11,4 C 10,0 C 96 % 1010,3 hPa 0,0 l/m 0 min 0 min 0,0 UV-I 0 W/m 10,7 km/h (2 Bft)
18.08.2014 23:52 11,3 C 10,0 C 96 % 1010,3 hPa 0,0 l/m 0 min 0 min 0,0 UV-I 0 W/m 14,2 km/h (3 Bft)
18.08.2014 23:54 11,3 C 10,0 C 97 % 1010,2 hPa 0,0 l/m 0 min 0 min 0,0 UV-I 0 W/m 14,2 km/h (3 Bft)
18.08.2014 23:56 11,3 C 10,0 C 97 % 1010,2 hPa 0,0 l/m 0 min 0 min 0,0 UV-I 0 W/m 17,7 km/h (3 Bft)
18.08.2014 23:58 11,3 C 10,6 C 97 % 1010,2 hPa 0,0 l/m 0 min 0 min 0,0 UV-I 0 W/m 10,7 km/h (2 Bft)
_ Min-Zeit 23:52 23:42 13:28 05:50 - - - - - 22:00
Minimum _ 11,3 C 10,0 C 63 % 1005,0 hPa - - - - - 0,0 km/h (0 Bft)
_ Max-Zeit 15:40 13:10 00:00 23:04 15:54 07:00 00:00 13:12 13:14 11:18
Maximum _ 19,0 C 18,9 C 97 % 1010,3 hPa 0,2 l/m 2 min 2 min 4,3 UV-I 1025 W/m 88,4 km/h
W-SW (10 Bft)
Durchschnitt _ 14,4 C 13,2 C 88 % 1006,9 hPa #1,6 l/m #5:42 h #2:13 h 1,7 UV-I 271 W/m 36,8 km/h (5 Bft)
© 2014 W. Hausmann